Wetterdaten: Donnerstag, 06.10.2016
Datum Zeit Temp. Aussen Temp. o. S. +5cm Feuchte Auss BlattFeu 1 Luftdruck Regen Sonnenschein Regendauer Solar Windben Empfang
06.10.2016 00:00 7,1 C 6,1 C 5,0 C 83 % 0 lf 1028,3 hPa 0,0 l/m 0 min 0 min 0 W/m 8,4 km/h (2 Bft) 94,00 %
06.10.2016 00:02 7,1 C 6,1 C 5,0 C 83 % 0 lf 1028,3 hPa 0,0 l/m 0 min 0 min 0 W/m 6,3 km/h (2 Bft) 9,09 %
06.10.2016 00:05 7,0 C 6,1 C 5,0 C 83 % 0 lf 1028,3 hPa 0,0 l/m 0 min 0 min 0 W/m 8,4 km/h (2 Bft) 54,17 %
06.10.2016 00:06 7,0 C 6,1 C 5,0 C 83 % 0 lf 1028,3 hPa 0,0 l/m 0 min 0 min 0 W/m 8,4 km/h (2 Bft) 86,96 %
06.10.2016 00:08 7,0 C 6,1 C 5,0 C 83 % 0 lf 1028,3 hPa 0,0 l/m 0 min 0 min 0 W/m 8,4 km/h (2 Bft) 91,49 %
06.10.2016 00:10 7,0 C 6,1 C 5,0 C 83 % 0 lf 1028,3 hPa 0,0 l/m 0 min 0 min 0 W/m 6,3 km/h (2 Bft) 93,62 %
06.10.2016 00:12 7,0 C 6,1 C 5,0 C 83 % 0 lf 1028,3 hPa 0,0 l/m 0 min 0 min 0 W/m 10,5 km/h (2 Bft) 97,87 %
06.10.2016 00:14 6,9 C 6,1 C 5,0 C 84 % 0 lf 1028,2 hPa 0,0 l/m 0 min 0 min 0 W/m 8,4 km/h (2 Bft) 97,87 %
06.10.2016 00:16 6,9 C 6,1 C 5,0 C 84 % 0 lf 1028,2 hPa 0,0 l/m 0 min 0 min 0 W/m 10,5 km/h (2 Bft) 97,87 %
06.10.2016 00:18 6,9 C 6,1 C 5,0 C 84 % 0 lf 1028,2 hPa 0,0 l/m 0 min 0 min 0 W/m 6,3 km/h (2 Bft) 95,65 %
06.10.2016 00:20 6,9 C 6,1 C 5,0 C 84 % 0 lf 1028,1 hPa 0,0 l/m 0 min 0 min 0 W/m 10,5 km/h (2 Bft) 97,87 %
06.10.2016 00:22 6,9 C 6,1 C 5,0 C 84 % 0 lf 1028,0 hPa 0,0 l/m 0 min 0 min 0 W/m 8,4 km/h (2 Bft) 95,74 %
06.10.2016 00:24 6,9 C 6,1 C 5,0 C 84 % 0 lf 1028,0 hPa 0,0 l/m 0 min 0 min 0 W/m 8,4 km/h (2 Bft) 91,49 %
06.10.2016 00:26 6,9 C 6,1 C 5,0 C 84 % 0 lf 1028,0 hPa 0,0 l/m 0 min 0 min 0 W/m 8,4 km/h (2 Bft) 97,87 %
06.10.2016 00:28 6,9 C 6,1 C 5,0 C 84 % 0 lf 1028,0 hPa 0,0 l/m 0 min 0 min 0 W/m 8,4 km/h (2 Bft) 97,87 %
06.10.2016 00:30 6,9 C 6,1 C 5,0 C 84 % 0 lf 1028,0 hPa 0,0 l/m 0 min 0 min 0 W/m 8,4 km/h (2 Bft) 97,83 %
06.10.2016 00:32 6,8 C 6,1 C 5,0 C 84 % 0 lf 1028,1 hPa 0,0 l/m 0 min 0 min 0 W/m 10,5 km/h (2 Bft) 100,00 %
06.10.2016 00:34 6,8 C 6,1 C 5,0 C 84 % 0 lf 1028,0 hPa 0,0 l/m 0 min 0 min 0 W/m 10,5 km/h (2 Bft) 95,74 %
06.10.2016 00:36 6,8 C 6,1 C 5,0 C 84 % 0 lf 1028,0 hPa 0,0 l/m 0 min 0 min 0 W/m 12,6 km/h (3 Bft) 95,74 %
06.10.2016 00:38 6,8 C 6,1 C 4,4 C 84 % 0 lf 1027,9 hPa 0,0 l/m 0 min 0 min 0 W/m 6,3 km/h (2 Bft) 97,87 %
06.10.2016 00:40 6,8 C 5,6 C 4,4 C 84 % 0 lf 1027,9 hPa 0,0 l/m 0 min 0 min 0 W/m 6,3 km/h (2 Bft) 93,62 %
06.10.2016 00:42 6,8 C 5,6 C 4,4 C 84 % 0 lf 1027,9 hPa 0,0 l/m 0 min 0 min 0 W/m 6,3 km/h (2 Bft) 95,65 %
06.10.2016 00:44 6,7 C 5,6 C 3,9 C 84 % 0 lf 1028,0 hPa 0,0 l/m 0 min 0 min 0 W/m 6,3 km/h (2 Bft) 97,87 %
06.10.2016 00:46 6,7 C 5,6 C 3,9 C 84 % 0 lf 1028,0 hPa 0,0 l/m 0 min 0 min 0 W/m 6,3 km/h (2 Bft) 97,87 %
06.10.2016 00:48 6,7 C 5,6 C 3,9 C 84 % 0 lf 1028,0 hPa 0,0 l/m 0 min 0 min 0 W/m 6,3 km/h (2 Bft) 95,74 %
06.10.2016 00:50 6,7 C 5,0 C 3,9 C 84 % 0 lf 1027,9 hPa 0,0 l/m 0 min 0 min 0 W/m 6,3 km/h (2 Bft) 97,87 %
06.10.2016 00:52 6,7 C 5,0 C 3,9 C 84 % 0 lf 1027,9 hPa 0,0 l/m 0 min 0 min 0 W/m 6,3 km/h (2 Bft) 97,87 %
06.10.2016 00:54 6,6 C 5,0 C 3,9 C 84 % 0 lf 1027,9 hPa 0,0 l/m 0 min 0 min 0 W/m 4,2 km/h (1 Bft) 97,83 %
06.10.2016 00:56 6,6 C 5,0 C 3,9 C 84 % 0 lf 1027,9 hPa 0,0 l/m 0 min 0 min 0 W/m 6,3 km/h (2 Bft) 95,74 %
06.10.2016 00:58 6,6 C 5,0 C 3,9 C 84 % 0 lf 1027,9 hPa 0,0 l/m 0 min 0 min 0 W/m 6,3 km/h (2 Bft) 93,62 %
06.10.2016 01:00 6,6 C 5,0 C 3,3 C 84 % 0 lf 1027,9 hPa 0,0 l/m 0 min 0 min 0 W/m 6,3 km/h (2 Bft) 93,88 %
06.10.2016 01:02 6,5 C 5,0 C 3,3 C 84 % 0 lf 1027,9 hPa 0,0 l/m 0 min 0 min 0 W/m 6,3 km/h (2 Bft) 97,87 %
06.10.2016 01:04 6,5 C 5,0 C 3,3 C 84 % 0 lf 1027,9 hPa 0,0 l/m 0 min 0 min 0 W/m 6,3 km/h (2 Bft) 97,83 %
06.10.2016 01:06 6,4 C 5,0 C 3,3 C 84 % 0 lf 1027,9 hPa 0,0 l/m 0 min 0 min 0 W/m 8,4 km/h (2 Bft) 95,74 %
06.10.2016 01:08 6,4 C 4,4 C 3,3 C 84 % 0 lf 1028,0 hPa 0,0 l/m 0 min 0 min 0 W/m 10,5 km/h (2 Bft) 93,62 %
06.10.2016 01:10 6,4 C 5,0 C 3,3 C 84 % 0 lf 1027,9 hPa 0,0 l/m 0 min 0 min 0 W/m 6,3 km/h (2 Bft) 95,74 %
06.10.2016 01:12 6,4 C 4,4 C 3,3 C 84 % 0 lf 1027,8 hPa 0,0 l/m 0 min 0 min 0 W/m 6,3 km/h (2 Bft) 95,74 %
06.10.2016 01:14 6,3 C 4,4 C 3,3 C 84 % 0 lf 1027,9 hPa 0,0 l/m 0 min 0 min 0 W/m 6,3 km/h (2 Bft) 93,62 %
06.10.2016 01:16 6,3 C 4,4 C 3,3 C 84 % 0 lf 1027,8 hPa 0,0 l/m 0 min 0 min 0 W/m 6,3 km/h (2 Bft) 97,83 %
06.10.2016 01:18 6,3 C 5,0 C 3,3 C 84 % 0 lf 1027,8 hPa 0,0 l/m 0 min 0 min 0 W/m 6,3 km/h (2 Bft) 93,62 %
06.10.2016 01:20 6,2 C 5,0 C 3,3 C 84 % 0 lf 1027,8 hPa 0,0 l/m 0 min 0 min 0 W/m 6,3 km/h (2 Bft) 95,74 %
06.10.2016 01:22 6,2 C 5,0 C 3,3 C 84 % 0 lf 1027,7 hPa 0,0 l/m 0 min 0 min 0 W/m 6,3 km/h (2 Bft) 93,62 %
06.10.2016 01:24 6,2 C 4,4 C 3,3 C 84 % 0 lf 1027,7 hPa 0,0 l/m 0 min 0 min 0 W/m 6,3 km/h (2 Bft) 95,74 %
06.10.2016 01:26 6,2 C 5,0 C 3,3 C 84 % 0 lf 1027,6 hPa 0,0 l/m 0 min 0 min 0 W/m 6,3 km/h (2 Bft) 95,74 %
06.10.2016 01:28 6,1 C 4,4 C 3,3 C 84 % 0 lf 1027,7 hPa 0,0 l/m 0 min 0 min 0 W/m 6,3 km/h (2 Bft) 95,65 %
06.10.2016 01:30 6,1 C 4,4 C 3,3 C 84 % 1 lf 1027,7 hPa 0,0 l/m 0 min 0 min 0 W/m 6,3 km/h (2 Bft) 95,74 %
06.10.2016 01:32 6,1 C 4,4 C 3,3 C 84 % 0 lf 1027,7 hPa 0,0 l/m 0 min 0 min 0 W/m 6,3 km/h (2 Bft) 91,49 %
06.10.2016 01:34 6,0 C 4,4 C 3,3 C 84 % 1 lf 1027,6 hPa 0,0 l/m 0 min 0 min 0 W/m 6,3 km/h (2 Bft) 95,74 %
06.10.2016 01:36 6,0 C 4,4 C 3,3 C 85 % 1 lf 1027,6 hPa 0,0 l/m 0 min 0 min 0 W/m 8,4 km/h (2 Bft) 93,62 %
06.10.2016 01:38 5,9 C 4,4 C 2,8 C 85 % 1 lf 1027,6 hPa 0,0 l/m 0 min 0 min 0 W/m 6,3 km/h (2 Bft) 93,62 %
06.10.2016 01:40 5,9 C 4,4 C 2,8 C 85 % 1 lf 1027,6 hPa 0,0 l/m 0 min 0 min 0 W/m 6,3 km/h (2 Bft) 93,48 %
06.10.2016 01:42 5,9 C 4,4 C 2,8 C 85 % 1 lf 1027,6 hPa 0,0 l/m 0 min 0 min 0 W/m 6,3 km/h (2 Bft) 95,74 %
06.10.2016 01:44 5,8 C 4,4 C 2,8 C 85 % 1 lf 1027,6 hPa 0,0 l/m 0 min 0 min 0 W/m 6,3 km/h (2 Bft) 91,49 %
06.10.2016 01:46 5,8 C 3,9 C 2,8 C 85 % 1 lf 1027,6 hPa 0,0 l/m 0 min 0 min 0 W/m 6,3 km/h (2 Bft) 95,74 %
06.10.2016 01:48 5,8 C 4,4 C 2,8 C 85 % 1 lf 1027,6 hPa 0,0 l/m 0 min 0 min 0 W/m 6,3 km/h (2 Bft) 95,74 %
06.10.2016 01:50 5,8 C 4,4 C 2,8 C 85 % 1 lf 1027,6 hPa 0,0 l/m 0 min 0 min 0 W/m 6,3 km/h (2 Bft) 97,83 %
06.10.2016 01:52 5,7 C 4,4 C 3,3 C 85 % 1 lf 1027,6 hPa 0,0 l/m 0 min 0 min 0 W/m 8,4 km/h (2 Bft) 95,74 %
06.10.2016 01:54 5,7 C 4,4 C 3,3 C 85 % 1 lf 1027,6 hPa 0,0 l/m 0 min 0 min 0 W/m 6,3 km/h (2 Bft) 97,87 %
06.10.2016 01:56 5,7 C 4,4 C 3,3 C 85 % 1 lf 1027,5 hPa 0,0 l/m 0 min 0 min 0 W/m 8,4 km/h (2 Bft) 100,00 %
06.10.2016 01:58 5,7 C 4,4 C 3,3 C 85 % 0 lf 1027,5 hPa 0,0 l/m 0 min 0 min 0 W/m 8,4 km/h (2 Bft) 97,87 %
06.10.2016 02:00 5,7 C 5,0 C 3,9 C 86 % 0 lf 1027,5 hPa 0,0 l/m 0 min 0 min 0 W/m 8,4 km/h (2 Bft) 97,62 %
06.10.2016 02:02 5,6 C 5,0 C 3,3 C 86 % 0 lf 1027,4 hPa 0,0 l/m 0 min 0 min 0 W/m 8,4 km/h (2 Bft) 96,00 %
06.10.2016 02:04 5,6 C 5,0 C 3,3 C 86 % 0 lf 1027,5 hPa 0,0 l/m 0 min 0 min 0 W/m 6,3 km/h (2 Bft) 93,48 %
06.10.2016 02:06 5,6 C 5,0 C 3,3 C 86 % 0 lf 1027,5 hPa 0,0 l/m 0 min 0 min 0 W/m 6,3 km/h (2 Bft) 97,87 %
06.10.2016 02:08 5,6 C 5,0 C 3,3 C 87 % 0 lf 1027,5 hPa 0,0 l/m 0 min 0 min 0 W/m 8,4 km/h (2 Bft) 95,74 %
06.10.2016 02:10 5,6 C 5,0 C 3,9 C 87 % 0 lf 1027,6 hPa 0,0 l/m 0 min 0 min 0 W/m 12,6 km/h (3 Bft) 95,74 %
06.10.2016 02:12 5,7 C 5,0 C 3,9 C 87 % 0 lf 1027,5 hPa 0,0 l/m 0 min 0 min 0 W/m 10,5 km/h (2 Bft) 97,87 %
06.10.2016 02:14 5,7 C 5,6 C 3,9 C 87 % 0 lf 1027,5 hPa 0,0 l/m 0 min 0 min 0 W/m 10,5 km/h (2 Bft) 93,48 %
06.10.2016 02:16 5,7 C 5,6 C 3,9 C 87 % 0 lf 1027,4 hPa 0,0 l/m 0 min 0 min 0 W/m 8,4 km/h (2 Bft) 97,87 %
06.10.2016 02:18 5,7 C 5,6 C 3,9 C 87 % 0 lf 1027,5 hPa 0,0 l/m 0 min 0 min 0 W/m 10,5 km/h (2 Bft) 97,87 %
06.10.2016 02:20 5,7 C 5,6 C 4,4 C 88 % 0 lf 1027,5 hPa 0,0 l/m 0 min 0 min 0 W/m 12,6 km/h (3 Bft) 97,87 %
06.10.2016 02:22 5,8 C 5,6 C 4,4 C 88 % 0 lf 1027,4 hPa 0,0 l/m 0 min 0 min 0 W/m 12,6 km/h (3 Bft) 97,87 %
06.10.2016 02:24 5,8 C 5,6 C 4,4 C 88 % 0 lf 1027,4 hPa 0,0 l/m 0 min 0 min 0 W/m 14,6 km/h (3 Bft) 97,87 %
06.10.2016 02:26 5,8 C 5,6 C 4,4 C 88 % 0 lf 1027,4 hPa 0,0 l/m 0 min 0 min 0 W/m 10,5 km/h (2 Bft) 95,65 %
06.10.2016 02:28 5,8 C 5,6 C 4,4 C 88 % 0 lf 1027,5 hPa 0,0 l/m 0 min 0 min 0 W/m 12,6 km/h (3 Bft) 95,74 %
06.10.2016 02:30 5,9 C 5,6 C 4,4 C 88 % 0 lf 1027,4 hPa 0,0 l/m 0 min 0 min 0 W/m 10,5 km/h (2 Bft) 97,87 %
06.10.2016 02:32 5,9 C 5,6 C 4,4 C 88 % 0 lf 1027,4 hPa 0,0 l/m 0 min 0 min 0 W/m 14,6 km/h (3 Bft) 97,87 %
06.10.2016 02:34 5,9 C 5,6 C 4,4 C 88 % 0 lf 1027,4 hPa 0,0 l/m 0 min 0 min 0 W/m 10,5 km/h (2 Bft) 97,87 %
06.10.2016 02:36 5,9 C 5,6 C 4,4 C 88 % 0 lf 1027,4 hPa 0,0 l/m 0 min 0 min 0 W/m 8,4 km/h (2 Bft) 97,87 %
06.10.2016 02:38 5,9 C 5,6 C 4,4 C 88 % 0 lf 1027,4 hPa 0,0 l/m 0 min 0 min 0 W/m 10,5 km/h (2 Bft) 97,83 %
06.10.2016 02:40 6,0 C 5,6 C 4,4 C 88 % 0 lf 1027,4 hPa 0,0 l/m 0 min 0 min 0 W/m 12,6 km/h (3 Bft) 97,87 %
06.10.2016 02:42 6,0 C 5,6 C 4,4 C 88 % 0 lf 1027,4 hPa 0,0 l/m 0 min 0 min 0 W/m 10,5 km/h (2 Bft) 93,62 %
06.10.2016 02:44 6,0 C 5,6 C 4,4 C 88 % 0 lf 1027,4 hPa 0,0 l/m 0 min 0 min 0 W/m 8,4 km/h (2 Bft) 100,00 %
06.10.2016 02:46 6,0 C 5,6 C 4,4 C 88 % 0 lf 1027,4 hPa 0,0 l/m 0 min 0 min 0 W/m 12,6 km/h (3 Bft) 97,87 %
06.10.2016 02:48 6,0 C 5,6 C 4,4 C 88 % 0 lf 1027,5 hPa 0,0 l/m 0 min 0 min 0 W/m 10,5 km/h (2 Bft) 97,87 %
06.10.2016 02:50 6,0 C 5,6 C 4,4 C 88 % 0 lf 1027,4 hPa 0,0 l/m 0 min 0 min 0 W/m 10,5 km/h (2 Bft) 100,00 %
06.10.2016 02:52 5,9 C 5,6 C 4,4 C 88 % 0 lf 1027,5 hPa 0,0 l/m 0 min 0 min 0 W/m 10,5 km/h (2 Bft) 97,87 %
06.10.2016 02:54 5,9 C 5,6 C 4,4 C 87 % 0 lf 1027,5 hPa 0,0 l/m 0 min 0 min 0 W/m 10,5 km/h (2 Bft) 100,00 %
06.10.2016 02:56 5,9 C 5,6 C 4,4 C 87 % 0 lf 1027,4 hPa 0,0 l/m 0 min 0 min 0 W/m 16,7 km/h (3 Bft) 97,87 %
06.10.2016 02:58 5,9 C 5,6 C 4,4 C 88 % 0 lf 1027,5 hPa 0,0 l/m 0 min 0 min 0 W/m 12,6 km/h (3 Bft) 97,87 %
06.10.2016 03:00 5,9 C 5,6 C 4,4 C 88 % 0 lf 1027,5 hPa 0,0 l/m 0 min 0 min 0 W/m 14,6 km/h (3 Bft) 97,92 %
06.10.2016 03:02 5,9 C 5,6 C 4,4 C 88 % 0 lf 1027,4 hPa 0,0 l/m 0 min 0 min 0 W/m 16,7 km/h (3 Bft) 100,00 %
06.10.2016 03:04 6,0 C 5,6 C 4,4 C 88 % 0 lf 1027,5 hPa 0,0 l/m 0 min 0 min 0 W/m 16,7 km/h (3 Bft) 97,87 %
06.10.2016 03:06 6,0 C 5,6 C 4,4 C 88 % 0 lf 1027,4 hPa 0,0 l/m 0 min 0 min 0 W/m 16,7 km/h (3 Bft) 97,87 %
06.10.2016 03:08 6,0 C 5,6 C 4,4 C 88 % 0 lf 1027,4 hPa 0,0 l/m 0 min 0 min 0 W/m 14,6 km/h (3 Bft) 100,00 %
06.10.2016 03:10 6,0 C 5,6 C 4,4 C 88 % 0 lf 1027,4 hPa 0,0 l/m 0 min 0 min 0 W/m 16,7 km/h (3 Bft) 100,00 %
06.10.2016 03:12 6,0 C 5,6 C 4,4 C 88 % 0 lf 1027,4 hPa 0,0 l/m 0 min 0 min 0 W/m 14,6 km/h (3 Bft) 95,65 %
06.10.2016 03:14 6,0 C 5,6 C 4,4 C 88 % 0 lf 1027,4 hPa 0,0 l/m 0 min 0 min 0 W/m 12,6 km/h (3 Bft) 95,74 %
06.10.2016 03:16 6,0 C 5,6 C 4,4 C 87 % 0 lf 1027,3 hPa 0,0 l/m 0 min 0 min 0 W/m 12,6 km/h (3 Bft) 95,74 %
06.10.2016 03:18 6,0 C 5,6 C 4,4 C 87 % 0 lf 1027,3 hPa 0,0 l/m 0 min 0 min 0 W/m 14,6 km/h (3 Bft) 97,87 %
06.10.2016 03:20 6,0 C 5,6 C 4,4 C 87 % 0 lf 1027,3 hPa 0,0 l/m 0 min 0 min 0 W/m 10,5 km/h (2 Bft) 97,87 %
06.10.2016 03:22 6,0 C 5,6 C 4,4 C 87 % 0 lf 1027,3 hPa 0,0 l/m 0 min 0 min 0 W/m 14,6 km/h (3 Bft) 95,74 %
06.10.2016 03:24 6,0 C 5,6 C 4,4 C 87 % 0 lf 1027,4 hPa 0,0 l/m 0 min 0 min 0 W/m 12,6 km/h (3 Bft) 97,83 %
06.10.2016 03:26 5,9 C 5,6 C 4,4 C 87 % 0 lf 1027,4 hPa 0,0 l/m 0 min 0 min 0 W/m 16,7 km/h (3 Bft) 95,74 %
06.10.2016 03:28 5,9 C 5,6 C 4,4 C 87 % 0 lf 1027,3 hPa 0,0 l/m 0 min 0 min 0 W/m 14,6 km/h (3 Bft) 93,62 %
06.10.2016 03:30 5,9 C 5,6 C 4,4 C 87 % 0 lf 1027,2 hPa 0,0 l/m 0 min 0 min 0 W/m 12,6 km/h (3 Bft) 97,87 %
06.10.2016 03:32 5,9 C 5,6 C 4,4 C 87 % 0 lf 1027,2 hPa 0,0 l/m 0 min 0 min 0 W/m 12,6 km/h (3 Bft) 95,74 %
06.10.2016 03:34 5,9 C 5,6 C 3,9 C 87 % 0 lf 1027,2 hPa 0,0 l/m 0 min 0 min 0 W/m 8,4 km/h (2 Bft) 95,74 %
06.10.2016 03:36 5,9 C 5,6 C 4,4 C 87 % 0 lf 1027,1 hPa 0,0 l/m 0 min 0 min 0 W/m 10,5 km/h (2 Bft) 97,83 %
06.10.2016 03:38 5,9 C 5,6 C 4,4 C 87 % 0 lf 1027,2 hPa 0,0 l/m 0 min 0 min 0 W/m 12,6 km/h (3 Bft) 95,74 %
06.10.2016 03:40 5,9 C 5,6 C 4,4 C 87 % 0 lf 1027,1 hPa 0,0 l/m 0 min 0 min 0 W/m 8,4 km/h (2 Bft) 97,87 %
06.10.2016 03:42 5,9 C 5,6 C 4,4 C 87 % 0 lf 1027,1 hPa 0,0 l/m 0 min 0 min 0 W/m 10,5 km/h (2 Bft) 97,87 %
06.10.2016 03:44 5,8 C 5,6 C 3,9 C 87 % 0 lf 1027,1 hPa 0,0 l/m 0 min 0 min 0 W/m 12,6 km/h (3 Bft) 95,74 %
06.10.2016 03:46 5,8 C 5,6 C 3,9 C 87 % 0 lf 1027,1 hPa 0,0 l/m 0 min 0 min 0 W/m 8,4 km/h (2 Bft) 100,00 %
06.10.2016 03:48 5,8 C 5,0 C 3,9 C 87 % 0 lf 1027,0 hPa 0,0 l/m 0 min 0 min 0 W/m 8,4 km/h (2 Bft) 95,65 %
06.10.2016 03:50 5,8 C 5,0 C 3,9 C 87 % 0 lf 1027,0 hPa 0,0 l/m 0 min 0 min 0 W/m 8,4 km/h (2 Bft) 95,74 %
06.10.2016 03:52 5,8 C 5,0 C 3,9 C 87 % 0 lf 1026,9 hPa 0,0 l/m 0 min 0 min 0 W/m 10,5 km/h (2 Bft) 97,87 %
06.10.2016 03:54 5,7 C 5,0 C 3,9 C 87 % 0 lf 1027,0 hPa 0,0 l/m 0 min 0 min 0 W/m 10,5 km/h (2 Bft) 97,87 %
06.10.2016 03:56 5,7 C 5,0 C 3,3 C 87 % 0 lf 1026,9 hPa 0,0 l/m 0 min 0 min 0 W/m 8,4 km/h (2 Bft) 100,00 %
06.10.2016 03:58 5,7 C 5,0 C 3,3 C 87 % 0 lf 1026,9 hPa 0,0 l/m 0 min 0 min 0 W/m 8,4 km/h (2 Bft) 100,00 %
06.10.2016 04:00 5,7 C 4,4 C 3,3 C 87 % 0 lf 1026,9 hPa 0,0 l/m 0 min 0 min 0 W/m 6,3 km/h (2 Bft) 97,62 %
06.10.2016 04:05 5,6 C 4,4 C 3,3 C 87 % 0 lf 1026,9 hPa 0,0 l/m 0 min 0 min 0 W/m 10,5 km/h (2 Bft) 93,10 %
06.10.2016 04:06 5,6 C 4,4 C 3,3 C 87 % 0 lf 1026,9 hPa 0,0 l/m 0 min 0 min 0 W/m 6,3 km/h (2 Bft) 100,00 %
06.10.2016 04:08 5,6 C 4,4 C 3,3 C 87 % 0 lf 1026,9 hPa 0,0 l/m 0 min 0 min 0 W/m 6,3 km/h (2 Bft) 95,74 %
06.10.2016 04:10 5,5 C 4,4 C 3,3 C 87 % 1 lf 1027,0 hPa 0,0 l/m 0 min 0 min 0 W/m 4,2 km/h (1 Bft) 93,62 %
06.10.2016 04:12 5,4 C 4,4 C 3,3 C 87 % 1 lf 1026,9 hPa 0,0 l/m 0 min 0 min 0 W/m 6,3 km/h (2 Bft) 93,48 %
06.10.2016 04:14 5,4 C 4,4 C 3,3 C 87 % 1 lf 1026,8 hPa 0,0 l/m 0 min 0 min 0 W/m 6,3 km/h (2 Bft) 95,74 %
06.10.2016 04:16 5,4 C 3,9 C 2,8 C 87 % 1 lf 1026,8 hPa 0,0 l/m 0 min 0 min 0 W/m 8,4 km/h (2 Bft) 93,62 %
06.10.2016 04:18 5,4 C 3,9 C 2,8 C 87 % 1 lf 1026,8 hPa 0,0 l/m 0 min 0 min 0 W/m 6,3 km/h (2 Bft) 95,74 %
06.10.2016 04:20 5,3 C 3,9 C 2,8 C 87 % 1 lf 1026,7 hPa 0,0 l/m 0 min 0 min 0 W/m 6,3 km/h (2 Bft) 93,62 %
06.10.2016 04:22 5,3 C 3,9 C 2,8 C 87 % 1 lf 1026,7 hPa 0,0 l/m 0 min 0 min 0 W/m 8,4 km/h (2 Bft) 93,62 %
06.10.2016 04:24 5,3 C 3,9 C 2,8 C 87 % 1 lf 1026,7 hPa 0,0 l/m 0 min 0 min 0 W/m 4,2 km/h (1 Bft) 95,65 %
06.10.2016 04:26 5,3 C 3,9 C 2,2 C 87 % 1 lf 1026,7 hPa 0,0 l/m 0 min 0 min 0 W/m 4,2 km/h (1 Bft) 91,49 %
06.10.2016 04:28 5,2 C 3,9 C 2,2 C 87 % 1 lf 1026,6 hPa 0,0 l/m 0 min 0 min 0 W/m 4,2 km/h (1 Bft) 95,74 %
06.10.2016 04:30 5,2 C 3,3 C 2,2 C 87 % 1 lf 1026,5 hPa 0,0 l/m 0 min 0 min 0 W/m 4,2 km/h (1 Bft) 97,87 %
06.10.2016 04:32 5,2 C 3,3 C 2,2 C 87 % 1 lf 1026,4 hPa 0,0 l/m 0 min 0 min 0 W/m 4,2 km/h (1 Bft) 93,62 %
06.10.2016 04:34 5,1 C 3,3 C 2,2 C 87 % 1 lf 1026,4 hPa 0,0 l/m 0 min 0 min 0 W/m 4,2 km/h (1 Bft) 93,62 %
06.10.2016 04:36 5,1 C 3,3 C 2,2 C 87 % 1 lf 1026,4 hPa 0,0 l/m 0 min 0 min 0 W/m 4,2 km/h (1 Bft) 93,48 %
06.10.2016 04:38 5,0 C 3,3 C 2,2 C 87 % 1 lf 1026,3 hPa 0,0 l/m 0 min 0 min 0 W/m 2,1 km/h (1 Bft) 91,49 %
06.10.2016 04:40 5,0 C 3,3 C 1,7 C 87 % 1 lf 1026,3 hPa 0,0 l/m 0 min 0 min 0 W/m 4,2 km/h (1 Bft) 91,49 %
06.10.2016 04:42 4,9 C 2,8 C 1,7 C 87 % 1 lf 1026,3 hPa 0,0 l/m 0 min 0 min 0 W/m 4,2 km/h (1 Bft) 93,62 %
06.10.2016 04:44 4,9 C 2,8 C 1,7 C 87 % 1 lf 1026,3 hPa 0,0 l/m 0 min 0 min 0 W/m 4,2 km/h (1 Bft) 89,36 %
06.10.2016 04:46 4,8 C 2,8 C 1,7 C 87 % 1 lf 1026,4 hPa 0,0 l/m 0 min 0 min 0 W/m 4,2 km/h (1 Bft) 93,48 %
06.10.2016 04:48 4,8 C 2,8 C 2,2 C 87 % 1 lf 1026,4 hPa 0,0 l/m 0 min 0 min 0 W/m 4,2 km/h (1 Bft) 91,49 %
06.10.2016 04:50 4,8 C 2,8 C 1,7 C 87 % 1 lf 1026,4 hPa 0,0 l/m 0 min 0 min 0 W/m 4,2 km/h (1 Bft) 91,49 %
06.10.2016 04:52 4,7 C 2,8 C 1,7 C 87 % 1 lf 1026,4 hPa 0,0 l/m 0 min 0 min 0 W/m 4,2 km/h (1 Bft) 91,49 %
06.10.2016 04:54 4,7 C 2,8 C 1,7 C 87 % 1 lf 1026,4 hPa 0,0 l/m 0 min 0 min 0 W/m 4,2 km/h (1 Bft) 93,62 %
06.10.2016 04:56 4,7 C 2,8 C 1,7 C 87 % 1 lf 1026,4 hPa 0,0 l/m 0 min 0 min 0 W/m 6,3 km/h (2 Bft) 93,62 %
06.10.2016 04:58 4,6 C 2,8 C 1,7 C 87 % 1 lf 1026,4 hPa 0,0 l/m 0 min 0 min 0 W/m 6,3 km/h (2 Bft) 93,48 %
06.10.2016 05:00 4,6 C 2,8 C 1,7 C 87 % 1 lf 1026,4 hPa 0,0 l/m 0 min 0 min 0 W/m 6,3 km/h (2 Bft) 89,36 %
06.10.2016 05:02 4,6 C 3,3 C 2,2 C 87 % 1 lf 1026,4 hPa 0,0 l/m 0 min 0 min 0 W/m 6,3 km/h (2 Bft) 89,36 %
06.10.2016 05:04 4,5 C 3,3 C 2,2 C 87 % 1 lf 1026,4 hPa 0,0 l/m 0 min 0 min 0 W/m 10,5 km/h (2 Bft) 91,49 %
06.10.2016 05:06 4,5 C 3,3 C 2,2 C 87 % 1 lf 1026,5 hPa 0,0 l/m 0 min 0 min 0 W/m 6,3 km/h (2 Bft) 89,36 %
06.10.2016 05:08 4,4 C 3,3 C 2,2 C 87 % 1 lf 1026,4 hPa 0,0 l/m 0 min 0 min 0 W/m 6,3 km/h (2 Bft) 89,36 %
06.10.2016 05:10 4,4 C 3,3 C 2,2 C 88 % 1 lf 1026,3 hPa 0,0 l/m 0 min 0 min 0 W/m 4,2 km/h (1 Bft) 91,30 %
06.10.2016 05:12 4,4 C 3,3 C 2,2 C 88 % 1 lf 1026,3 hPa 0,0 l/m 0 min 0 min 0 W/m 4,2 km/h (1 Bft) 91,49 %
06.10.2016 05:14 4,4 C 2,8 C 1,7 C 88 % 1 lf 1026,3 hPa 0,0 l/m 0 min 0 min 0 W/m 6,3 km/h (2 Bft) 89,36 %
06.10.2016 05:16 4,3 C 2,8 C 1,7 C 88 % 1 lf 1026,3 hPa 0,0 l/m 0 min 0 min 0 W/m 6,3 km/h (2 Bft) 95,74 %
06.10.2016 05:18 4,3 C 2,8 C 1,7 C 88 % 1 lf 1026,2 hPa 0,0 l/m 0 min 0 min 0 W/m 6,3 km/h (2 Bft) 93,62 %
06.10.2016 05:20 4,3 C 2,8 C 1,7 C 88 % 1 lf 1026,2 hPa 0,0 l/m 0 min 0 min 0 W/m 6,3 km/h (2 Bft) 93,62 %
06.10.2016 05:22 4,2 C 2,8 C 1,7 C 88 % 1 lf 1026,2 hPa 0,0 l/m 0 min 0 min 0 W/m 4,2 km/h (1 Bft) 95,65 %
06.10.2016 05:24 4,2 C 2,8 C 1,7 C 88 % 1 lf 1026,1 hPa 0,0 l/m 0 min 0 min 0 W/m 4,2 km/h (1 Bft) 95,74 %
06.10.2016 05:26 4,2 C 2,8 C 1,7 C 88 % 1 lf 1026,0 hPa 0,0 l/m 0 min 0 min 0 W/m 4,2 km/h (1 Bft) 97,87 %
06.10.2016 05:28 4,2 C 2,8 C 1,7 C 88 % 1 lf 1025,9 hPa 0,0 l/m 0 min 0 min 0 W/m 2,1 km/h (1 Bft) 95,74 %
06.10.2016 05:30 4,2 C 2,8 C 1,7 C 88 % 2 lf 1025,8 hPa 0,0 l/m 0 min 0 min 0 W/m 2,1 km/h (1 Bft) 97,87 %
06.10.2016 05:32 4,1 C 2,8 C 1,7 C 88 % 2 lf 1025,9 hPa 0,0 l/m 0 min 0 min 0 W/m 4,2 km/h (1 Bft) 95,74 %
06.10.2016 05:34 4,1 C 2,8 C 1,7 C 88 % 2 lf 1025,9 hPa 0,0 l/m 0 min 0 min 0 W/m 4,2 km/h (1 Bft) 97,83 %
06.10.2016 05:36 4,1 C 2,8 C 1,7 C 88 % 2 lf 1025,8 hPa 0,0 l/m 0 min 0 min 0 W/m 2,1 km/h (1 Bft) 100,00 %
06.10.2016 05:38 4,1 C 2,8 C 1,7 C 88 % 2 lf 1025,8 hPa 0,0 l/m 0 min 0 min 0 W/m 4,2 km/h (1 Bft) 100,00 %
06.10.2016 05:40 4,0 C 2,2 C 1,7 C 88 % 2 lf 1025,9 hPa 0,0 l/m 0 min 0 min 0 W/m 6,3 km/h (2 Bft) 97,87 %
06.10.2016 05:42 4,0 C 2,2 C 1,7 C 88 % 2 lf 1025,8 hPa 0,0 l/m 0 min 0 min 0 W/m 4,2 km/h (1 Bft) 97,87 %
06.10.2016 05:44 3,9 C 2,2 C 1,1 C 88 % 2 lf 1025,8 hPa 0,0 l/m 0 min 0 min 0 W/m 6,3 km/h (2 Bft) 97,87 %
06.10.2016 05:46 3,9 C 2,2 C 1,1 C 88 % 2 lf 1025,8 hPa 0,0 l/m 0 min 0 min 0 W/m 4,2 km/h (1 Bft) 100,00 %
06.10.2016 05:48 3,9 C 2,2 C 1,1 C 88 % 2 lf 1025,8 hPa 0,0 l/m 0 min 0 min 0 W/m 4,2 km/h (1 Bft) 100,00 %
06.10.2016 05:50 3,8 C 2,2 C 1,1 C 88 % 2 lf 1025,8 hPa 0,0 l/m 0 min 0 min 0 W/m 6,3 km/h (2 Bft) 95,74 %
06.10.2016 05:52 3,8 C 2,2 C 1,1 C 88 % 3 lf 1025,8 hPa 0,0 l/m 0 min 0 min 0 W/m 4,2 km/h (1 Bft) 100,00 %
06.10.2016 05:54 3,8 C 2,8 C 1,1 C 88 % 3 lf 1025,8 hPa 0,0 l/m 0 min 0 min 0 W/m 4,2 km/h (1 Bft) 93,62 %
06.10.2016 05:56 3,8 C 2,2 C 1,7 C 88 % 3 lf 1025,8 hPa 0,0 l/m 0 min 0 min 0 W/m 6,3 km/h (2 Bft) 100,00 %
06.10.2016 05:58 3,7 C 2,2 C 1,7 C 89 % 2 lf 1025,8 hPa 0,0 l/m 0 min 0 min 0 W/m 4,2 km/h (1 Bft) 97,87 %
06.10.2016 06:00 3,7 C 2,8 C 1,7 C 89 % 2 lf 1025,8 hPa 0,0 l/m 0 min 0 min 0 W/m 2,1 km/h (1 Bft) 95,74 %
06.10.2016 06:02 3,7 C 2,8 C 1,7 C 89 % 2 lf 1025,7 hPa 0,0 l/m 0 min 0 min 0 W/m 4,2 km/h (1 Bft) 100,00 %
06.10.2016 06:04 3,7 C 2,8 C 1,7 C 89 % 2 lf 1025,8 hPa 0,0 l/m 0 min 0 min 0 W/m 6,3 km/h (2 Bft) 100,00 %
06.10.2016 06:06 3,7 C 2,8 C 2,2 C 89 % 2 lf 1025,8 hPa 0,0 l/m 0 min 0 min 0 W/m 6,3 km/h (2 Bft) 97,87 %
06.10.2016 06:08 3,7 C 3,3 C 2,2 C 89 % 1 lf 1025,8 hPa 0,0 l/m 0 min 0 min 0 W/m 8,4 km/h (2 Bft) 100,00 %
06.10.2016 06:10 3,7 C 3,3 C 2,2 C 89 % 1 lf 1025,8 hPa 0,0 l/m 0 min 0 min 0 W/m 6,3 km/h (2 Bft) 100,00 %
06.10.2016 06:12 3,7 C 3,3 C 2,2 C 89 % 1 lf 1025,8 hPa 0,0 l/m 0 min 0 min 0 W/m 6,3 km/h (2 Bft) 100,00 %
06.10.2016 06:14 3,7 C 3,3 C 2,8 C 89 % 1 lf 1025,8 hPa 0,0 l/m 0 min 0 min 0 W/m 6,3 km/h (2 Bft) 97,87 %
06.10.2016 06:16 3,7 C 3,3 C 2,8 C 90 % 1 lf 1025,8 hPa 0,0 l/m 0 min 0 min 0 W/m 6,3 km/h (2 Bft) 97,87 %
06.10.2016 06:18 3,7 C 3,3 C 2,8 C 90 % 1 lf 1025,7 hPa 0,0 l/m 0 min 0 min 0 W/m 4,2 km/h (1 Bft) 100,00 %
06.10.2016 06:20 3,7 C 3,9 C 2,8 C 90 % 1 lf 1025,7 hPa 0,0 l/m 0 min 0 min 0 W/m 6,3 km/h (2 Bft) 100,00 %
06.10.2016 06:22 3,7 C 3,9 C 2,8 C 90 % 1 lf 1025,7 hPa 0,0 l/m 0 min 0 min 0 W/m 6,3 km/h (2 Bft) 95,74 %
06.10.2016 06:24 3,7 C 3,9 C 2,8 C 90 % 1 lf 1025,7 hPa 0,0 l/m 0 min 0 min 0 W/m 6,3 km/h (2 Bft) 100,00 %
06.10.2016 06:26 3,7 C 3,9 C 2,8 C 90 % 1 lf 1025,7 hPa 0,0 l/m 0 min 0 min 0 W/m 6,3 km/h (2 Bft) 100,00 %
06.10.2016 06:28 3,8 C 3,9 C 3,3 C 90 % 1 lf 1025,7 hPa 0,0 l/m 0 min 0 min 0 W/m 6,3 km/h (2 Bft) 100,00 %
06.10.2016 06:30 3,8 C 3,9 C 3,3 C 90 % 1 lf 1025,6 hPa 0,0 l/m 0 min 0 min 0 W/m 6,3 km/h (2 Bft) 97,87 %
06.10.2016 06:32 3,8 C 3,9 C 3,3 C 91 % 1 lf 1025,6 hPa 0,0 l/m 0 min 0 min 0 W/m 6,3 km/h (2 Bft) 97,83 %
06.10.2016 06:34 3,8 C 3,9 C 3,3 C 91 % 1 lf 1025,7 hPa 0,0 l/m 0 min 0 min 0 W/m 6,3 km/h (2 Bft) 97,87 %
06.10.2016 06:36 3,9 C 3,9 C 3,3 C 91 % 1 lf 1025,7 hPa 0,0 l/m 0 min 0 min 0 W/m 8,4 km/h (2 Bft) 100,00 %
06.10.2016 06:38 3,9 C 4,4 C 3,3 C 91 % 1 lf 1025,7 hPa 0,0 l/m 0 min 0 min 0 W/m 8,4 km/h (2 Bft) 97,87 %
06.10.2016 06:40 3,9 C 4,4 C 3,3 C 91 % 1 lf 1025,7 hPa 0,0 l/m 0 min 0 min 0 W/m 8,4 km/h (2 Bft) 93,62 %
06.10.2016 06:42 4,0 C 4,4 C 3,3 C 91 % 1 lf 1025,6 hPa 0,0 l/m 0 min 0 min 0 W/m 8,4 km/h (2 Bft) 100,00 %
06.10.2016 06:44 4,1 C 4,4 C 3,3 C 91 % 1 lf 1025,6 hPa 0,0 l/m 0 min 0 min 0 W/m 6,3 km/h (2 Bft) 95,65 %
06.10.2016 06:46 4,1 C 4,4 C 3,3 C 91 % 1 lf 1025,6 hPa 0,0 l/m 0 min 0 min 0 W/m 6,3 km/h (2 Bft) 100,00 %
06.10.2016 06:48 4,1 C 4,4 C 3,3 C 92 % 1 lf 1025,5 hPa 0,0 l/m 0 min 0 min 0 W/m 6,3 km/h (2 Bft) 97,87 %
06.10.2016 06:50 4,2 C 4,4 C 3,3 C 92 % 1 lf 1025,5 hPa 0,0 l/m 0 min 0 min 0 W/m 6,3 km/h (2 Bft) 97,87 %
06.10.2016 06:52 4,2 C 4,4 C 3,9 C 92 % 1 lf 1025,5 hPa 0,0 l/m 0 min 0 min 0 W/m 6,3 km/h (2 Bft) 91,49 %
06.10.2016 06:54 4,2 C 4,4 C 3,9 C 92 % 1 lf 1025,4 hPa 0,0 l/m 0 min 0 min 0 W/m 8,4 km/h (2 Bft) 93,62 %
06.10.2016 06:56 4,2 C 4,4 C 3,9 C 92 % 1 lf 1025,3 hPa 0,0 l/m 0 min 0 min 0 W/m 8,4 km/h (2 Bft) 97,83 %
06.10.2016 06:58 4,2 C 4,4 C 3,9 C 92 % 1 lf 1025,3 hPa 0,0 l/m 0 min 0 min 0 W/m 8,4 km/h (2 Bft) 97,87 %
06.10.2016 07:00 4,3 C 4,4 C 3,9 C 92 % 1 lf 1025,3 hPa 0,0 l/m 0 min 0 min 0 W/m 8,4 km/h (2 Bft) 95,74 %
06.10.2016 07:02 4,3 C 4,4 C 3,9 C 92 % 1 lf 1025,2 hPa 0,0 l/m 0 min 0 min 0 W/m 8,4 km/h (2 Bft) 93,62 %
06.10.2016 07:04 4,3 C 4,4 C 3,9 C 92 % 1 lf 1025,2 hPa 0,0 l/m 0 min 0 min 0 W/m 6,3 km/h (2 Bft) 91,49 %
06.10.2016 07:06 4,4 C 4,4 C 3,9 C 92 % 1 lf 1025,2 hPa 0,0 l/m 0 min 0 min 0 W/m 4,2 km/h (1 Bft) 95,65 %
06.10.2016 07:08 4,4 C 4,4 C 3,9 C 92 % 1 lf 1025,3 hPa 0,0 l/m 0 min 0 min 0 W/m 6,3 km/h (2 Bft) 97,87 %
06.10.2016 07:10 4,4 C 4,4 C 3,9 C 92 % 1 lf 1025,3 hPa 0,0 l/m 0 min 0 min 0 W/m 8,4 km/h (2 Bft) 95,74 %
06.10.2016 07:12 4,4 C 4,4 C 3,9 C 92 % 1 lf 1025,3 hPa 0,0 l/m 0 min 0 min 0 W/m 8,4 km/h (2 Bft) 93,62 %
06.10.2016 07:14 4,5 C 5,0 C 3,9 C 93 % 1 lf 1025,3 hPa 0,0 l/m 0 min 0 min 0 W/m 10,5 km/h (2 Bft) 89,36 %
06.10.2016 07:16 4,5 C 5,0 C 3,9 C 93 % 1 lf 1025,3 hPa 0,0 l/m 0 min 0 min 0 W/m 6,3 km/h (2 Bft) 93,62 %
06.10.2016 07:18 4,5 C 5,0 C 3,9 C 93 % 1 lf 1025,2 hPa 0,0 l/m 0 min 0 min 0 W/m 8,4 km/h (2 Bft) 93,48 %
06.10.2016 07:20 4,6 C 5,0 C 3,9 C 93 % 1 lf 1025,2 hPa 0,0 l/m 0 min 0 min 0 W/m 6,3 km/h (2 Bft) 91,49 %
06.10.2016 07:22 4,6 C 5,0 C 3,9 C 93 % 1 lf 1025,2 hPa 0,0 l/m 0 min 0 min 0 W/m 10,5 km/h (2 Bft) 95,74 %
06.10.2016 07:24 4,6 C 5,0 C 3,9 C 93 % 1 lf 1025,2 hPa 0,0 l/m 0 min 0 min 0 W/m 8,4 km/h (2 Bft) 93,62 %
06.10.2016 07:26 4,6 C 5,0 C 3,9 C 93 % 1 lf 1025,2 hPa 0,0 l/m 0 min 0 min 0 W/m 6,3 km/h (2 Bft) 95,74 %
06.10.2016 07:28 4,7 C 5,0 C 3,9 C 93 % 1 lf 1025,1 hPa 0,0 l/m 0 min 0 min 0 W/m 10,5 km/h (2 Bft) 95,74 %
06.10.2016 07:30 4,7 C 5,0 C 3,9 C 93 % 1 lf 1025,2 hPa 0,0 l/m 0 min 0 min 0 W/m 6,3 km/h (2 Bft) 97,83 %
06.10.2016 07:32 4,7 C 5,0 C 4,4 C 93 % 1 lf 1025,2 hPa 0,0 l/m 0 min 0 min 0 W/m 8,4 km/h (2 Bft) 93,62 %
06.10.2016 07:34 4,8 C 5,0 C 4,4 C 93 % 1 lf 1025,2 hPa 0,0 l/m 0 min 0 min 3 W/m 10,5 km/h (2 Bft) 91,49 %
06.10.2016 07:36 4,8 C 5,6 C 4,4 C 93 % 1 lf 1025,1 hPa 0,0 l/m 0 min 0 min 5 W/m 8,4 km/h (2 Bft) 91,49 %
06.10.2016 07:38 4,8 C 5,6 C 4,4 C 93 % 1 lf 1025,2 hPa 0,0 l/m 0 min 0 min 5 W/m 8,4 km/h (2 Bft) 91,49 %
06.10.2016 07:40 4,8 C 5,6 C 4,4 C 93 % 1 lf 1025,3 hPa 0,0 l/m 0 min 0 min 5 W/m 6,3 km/h (2 Bft) 93,62 %
06.10.2016 07:42 4,9 C 5,6 C 4,4 C 93 % 1 lf 1025,3 hPa 0,0 l/m 0 min 0 min 5 W/m 8,4 km/h (2 Bft) 97,83 %
06.10.2016 07:44 4,9 C 5,6 C 4,4 C 93 % 1 lf 1025,3 hPa 0,0 l/m 0 min 0 min 5 W/m 8,4 km/h (2 Bft) 95,74 %
06.10.2016 07:46 4,9 C 5,6 C 4,4 C 93 % 1 lf 1025,2 hPa 0,0 l/m 0 min 0 min 5 W/m 4,2 km/h (1 Bft) 97,87 %
06.10.2016 07:48 4,9 C 5,6 C 4,4 C 93 % 1 lf 1025,3 hPa 0,0 l/m 0 min 0 min 5 W/m 6,3 km/h (2 Bft) 95,74 %
06.10.2016 07:50 4,9 C 5,6 C 4,4 C 93 % 1 lf 1025,3 hPa 0,0 l/m 0 min 0 min 6 W/m 6,3 km/h (2 Bft) 97,87 %
06.10.2016 07:52 4,9 C 5,6 C 4,4 C 93 % 1 lf 1025,3 hPa 0,0 l/m 0 min 0 min 7 W/m 8,4 km/h (2 Bft) 97,87 %
06.10.2016 07:54 5,0 C 5,6 C 4,4 C 93 % 1 lf 1025,3 hPa 0,0 l/m 0 min 0 min 7 W/m 6,3 km/h (2 Bft) 97,83 %
06.10.2016 07:56 5,0 C 5,6 C 4,4 C 93 % 1 lf 1025,4 hPa 0,0 l/m 0 min 0 min 9 W/m 8,4 km/h (2 Bft) 95,74 %
06.10.2016 07:58 5,0 C 5,6 C 4,4 C 93 % 1 lf 1025,2 hPa 0,0 l/m 0 min 0 min 10 W/m 6,3 km/h (2 Bft) 97,87 %
06.10.2016 08:00 5,1 C 5,6 C 4,4 C 93 % 1 lf 1025,2 hPa 0,0 l/m 0 min 0 min 11 W/m 4,2 km/h (1 Bft) 97,87 %
06.10.2016 08:02 5,1 C 5,6 C 4,4 C 93 % 1 lf 1025,2 hPa 0,0 l/m 0 min 0 min 11 W/m 4,2 km/h (1 Bft) 100,00 %
06.10.2016 08:04 5,1 C 5,6 C 4,4 C 93 % 1 lf 1025,2 hPa 0,0 l/m 0 min 0 min 12 W/m 4,2 km/h (1 Bft) 100,00 %
06.10.2016 08:06 5,1 C 5,6 C 4,4 C 93 % 1 lf 1025,2 hPa 0,0 l/m 0 min 0 min 14 W/m 6,3 km/h (2 Bft) 95,65 %
06.10.2016 08:08 5,1 C 5,6 C 4,4 C 93 % 1 lf 1025,1 hPa 0,0 l/m 0 min 0 min 16 W/m 4,2 km/h (1 Bft) 93,62 %
06.10.2016 08:10 5,1 C 5,6 C 4,4 C 93 % 1 lf 1025,1 hPa 0,0 l/m 0 min 0 min 16 W/m 6,3 km/h (2 Bft) 97,87 %
06.10.2016 08:12 5,1 C 5,6 C 4,4 C 93 % 1 lf 1025,2 hPa 0,0 l/m 0 min 0 min 19 W/m 4,2 km/h (1 Bft) 97,87 %
06.10.2016 08:14 5,2 C 5,6 C 4,4 C 93 % 1 lf 1025,1 hPa 0,0 l/m 0 min 0 min 23 W/m 6,3 km/h (2 Bft) 100,00 %
06.10.2016 08:16 5,2 C 5,6 C 5,0 C 93 % 0 lf 1025,1 hPa 0,0 l/m 0 min 0 min 25 W/m 4,2 km/h (1 Bft) 100,00 %
06.10.2016 08:18 5,2 C 6,1 C 5,0 C 93 % 0 lf 1025,1 hPa 0,0 l/m 0 min 0 min 26 W/m 8,4 km/h (2 Bft) 95,74 %
06.10.2016 08:20 5,2 C 6,1 C 5,0 C 93 % 0 lf 1025,1 hPa 0,0 l/m 0 min 0 min 26 W/m 6,3 km/h (2 Bft) 100,00 %
06.10.2016 08:22 5,2 C 6,1 C 5,0 C 93 % 0 lf 1025,1 hPa 0,0 l/m 0 min 0 min 28 W/m 8,4 km/h (2 Bft) 100,00 %
06.10.2016 08:24 5,2 C 6,1 C 5,0 C 93 % 0 lf 1025,1 hPa 0,0 l/m 0 min 0 min 26 W/m 10,5 km/h (2 Bft) 97,87 %
06.10.2016 08:26 5,3 C 6,1 C 5,0 C 93 % 0 lf 1025,0 hPa 0,0 l/m 0 min 0 min 29 W/m 6,3 km/h (2 Bft) 100,00 %
06.10.2016 08:28 5,3 C 6,1 C 5,0 C 93 % 0 lf 1025,1 hPa 0,0 l/m 0 min 0 min 29 W/m 8,4 km/h (2 Bft) 95,74 %
06.10.2016 08:30 5,3 C 6,1 C 5,0 C 93 % 0 lf 1025,0 hPa 0,0 l/m 0 min 0 min 32 W/m 6,3 km/h (2 Bft) 100,00 %
06.10.2016 08:32 5,3 C 6,1 C 5,0 C 93 % 0 lf 1025,0 hPa 0,0 l/m 0 min 0 min 34 W/m 6,3 km/h (2 Bft) 100,00 %
06.10.2016 08:34 5,4 C 6,1 C 5,0 C 93 % 0 lf 1025,1 hPa 0,0 l/m 0 min 0 min 35 W/m 6,3 km/h (2 Bft) 100,00 %
06.10.2016 08:36 5,4 C 6,1 C 5,0 C 93 % 0 lf 1025,0 hPa 0,0 l/m 0 min 0 min 37 W/m 8,4 km/h (2 Bft) 97,87 %
06.10.2016 08:38 5,4 C 6,1 C 5,0 C 93 % 0 lf 1025,0 hPa 0,0 l/m 0 min 0 min 39 W/m 8,4 km/h (2 Bft) 95,74 %
06.10.2016 08:40 5,4 C 6,1 C 5,0 C 93 % 0 lf 1024,9 hPa 0,0 l/m 0 min 0 min 42 W/m 10,5 km/h (2 Bft) 95,65 %
06.10.2016 08:42 5,5 C 6,7 C 5,0 C 93 % 0 lf 1024,9 hPa 0,0 l/m 0 min 0 min 43 W/m 8,4 km/h (2 Bft) 93,62 %
06.10.2016 08:44 5,5 C 6,7 C 5,6 C 93 % 0 lf 1025,0 hPa 0,0 l/m 0 min 0 min 45 W/m 8,4 km/h (2 Bft) 95,74 %
06.10.2016 08:46 5,6 C 6,7 C 5,6 C 93 % 0 lf 1024,9 hPa 0,0 l/m 0 min 0 min 48 W/m 6,3 km/h (2 Bft) 93,62 %
06.10.2016 08:48 5,6 C 6,7 C 5,6 C 93 % 0 lf 1025,0 hPa 0,0 l/m 0 min 0 min 51 W/m 8,4 km/h (2 Bft) 91,49 %
06.10.2016 08:50 5,6 C 6,7 C 5,6 C 93 % 0 lf 1025,0 hPa 0,0 l/m 0 min 0 min 51 W/m 8,4 km/h (2 Bft) 93,62 %
06.10.2016 08:52 5,7 C 6,7 C 5,6 C 93 % 0 lf 1025,0 hPa 0,0 l/m 0 min 0 min 54 W/m 8,4 km/h (2 Bft) 95,65 %
06.10.2016 08:54 5,7 C 6,7 C 5,6 C 92 % 0 lf 1024,9 hPa 0,0 l/m 0 min 0 min 56 W/m 10,5 km/h (2 Bft) 95,74 %
06.10.2016 08:56 5,7 C 6,7 C 5,6 C 92 % 0 lf 1024,9 hPa 0,0 l/m 0 min 0 min 60 W/m 10,5 km/h (2 Bft) 95,74 %
06.10.2016 08:58 5,7 C 6,7 C 5,6 C 92 % 0 lf 1024,9 hPa 0,0 l/m 0 min 0 min 62 W/m 8,4 km/h (2 Bft) 95,74 %
06.10.2016 09:00 5,7 C 7,2 C 5,6 C 92 % 0 lf 1024,9 hPa 0,0 l/m 0 min 0 min 63 W/m 6,3 km/h (2 Bft) 95,74 %
06.10.2016 09:02 5,8 C 7,2 C 5,6 C 92 % 0 lf 1024,9 hPa 0,0 l/m 0 min 0 min 68 W/m 6,3 km/h (2 Bft) 87,23 %
06.10.2016 09:04 5,8 C 7,2 C 5,6 C 92 % 0 lf 1024,9 hPa 0,0 l/m 0 min 0 min 73 W/m 8,4 km/h (2 Bft) 95,65 %
06.10.2016 09:06 5,8 C 7,2 C 6,1 C 92 % 0 lf 1024,8 hPa 0,0 l/m 0 min 0 min 82 W/m 8,4 km/h (2 Bft) 93,62 %
06.10.2016 09:08 5,9 C 7,2 C 6,1 C 92 % 0 lf 1024,9 hPa 0,0 l/m 0 min 0 min 89 W/m 8,4 km/h (2 Bft) 89,36 %
06.10.2016 09:10 5,9 C 7,8 C 6,1 C 92 % 0 lf 1024,8 hPa 0,0 l/m 0 min 0 min 89 W/m 8,4 km/h (2 Bft) 95,74 %
06.10.2016 09:12 6,0 C 7,8 C 6,1 C 92 % 0 lf 1024,8 hPa 0,0 l/m 0 min 0 min 85 W/m 8,4 km/h (2 Bft) 95,74 %
06.10.2016 09:14 6,0 C 7,8 C 6,1 C 92 % 0 lf 1024,8 hPa 0,0 l/m 0 min 0 min 84 W/m 12,6 km/h (3 Bft) 97,87 %
06.10.2016 09:16 6,1 C 7,8 C 6,1 C 92 % 0 lf 1024,8 hPa 0,0 l/m 0 min 0 min 84 W/m 12,6 km/h (3 Bft) 93,48 %
06.10.2016 09:18 6,1 C 7,8 C 6,1 C 92 % 0 lf 1024,8 hPa 0,0 l/m 0 min 0 min 88 W/m 8,4 km/h (2 Bft) 97,87 %
06.10.2016 09:20 6,2 C 7,8 C 6,7 C 92 % 0 lf 1024,8 hPa 0,0 l/m 0 min 0 min 86 W/m 16,7 km/h (3 Bft) 95,74 %
06.10.2016 09:22 6,2 C 7,8 C 6,1 C 92 % 0 lf 1024,7 hPa 0,0 l/m 0 min 0 min 81 W/m 14,6 km/h (3 Bft) 95,74 %
06.10.2016 09:24 6,3 C 7,8 C 6,7 C 92 % 0 lf 1024,6 hPa 0,0 l/m 0 min 0 min 82 W/m 8,4 km/h (2 Bft) 95,74 %
06.10.2016 09:26 6,3 C 7,8 C 6,7 C 92 % 0 lf 1024,7 hPa 0,0 l/m 0 min 0 min 84 W/m 10,5 km/h (2 Bft) 97,87 %
06.10.2016 09:28 6,4 C 7,8 C 6,7 C 92 % 0 lf 1024,7 hPa 0,0 l/m 0 min 0 min 88 W/m 12,6 km/h (3 Bft) 95,65 %
06.10.2016 09:30 6,4 C 7,8 C 6,7 C 91 % 0 lf 1024,7 hPa 0,0 l/m 0 min 0 min 93 W/m 10,5 km/h (2 Bft) 95,74 %
06.10.2016 09:32 6,4 C 7,8 C 6,7 C 91 % 0 lf 1024,7 hPa 0,0 l/m 0 min 0 min 91 W/m 10,5 km/h (2 Bft) 91,49 %
06.10.2016 09:34 6,4 C 7,8 C 6,7 C 91 % 0 lf 1024,7 hPa 0,0 l/m 0 min 0 min 92 W/m 12,6 km/h (3 Bft) 95,74 %
06.10.2016 09:36 6,5 C 8,3 C 6,7 C 91 % 0 lf 1024,7 hPa 0,0 l/m 0 min 0 min 96 W/m 10,5 km/h (2 Bft) 97,87 %
06.10.2016 09:38 6,6 C 8,3 C 7,2 C 91 % 0 lf 1024,7 hPa 0,0 l/m 0 min 0 min 106 W/m 8,4 km/h (2 Bft) 95,74 %
06.10.2016 09:40 6,6 C 8,3 C 7,2 C 91 % 0 lf 1024,8 hPa 0,0 l/m 0 min 0 min 114 W/m 14,6 km/h (3 Bft) 100,00 %
06.10.2016 09:42 6,7 C 8,9 C 7,2 C 91 % 0 lf 1024,7 hPa 0,0 l/m 0 min 0 min 121 W/m 10,5 km/h (2 Bft) 97,87 %
06.10.2016 09:44 6,7 C 8,9 C 7,2 C 91 % 0 lf 1024,7 hPa 0,0 l/m 0 min 0 min 142 W/m 14,6 km/h (3 Bft) 95,74 %
06.10.2016 09:46 6,8 C 9,4 C 7,8 C 90 % 0 lf 1024,7 hPa 0,0 l/m 2 min 0 min 172 W/m 14,6 km/h (3 Bft) 95,74 %
06.10.2016 09:48 6,8 C 9,4 C 7,2 C 91 % 0 lf 1024,7 hPa 0,0 l/m 2 min 0 min 173 W/m 16,7 km/h (3 Bft) 95,74 %
06.10.2016 09:50 6,9 C 9,4 C 7,2 C 90 % 0 lf 1024,6 hPa 0,0 l/m 2 min 0 min 165 W/m 16,7 km/h (3 Bft) 95,74 %
06.10.2016 09:52 6,9 C 9,4 C 7,2 C 90 % 0 lf 1024,6 hPa 0,0 l/m 2 min 0 min 164 W/m 14,6 km/h (3 Bft) 97,83 %
06.10.2016 09:54 7,0 C 9,4 C 7,2 C 89 % 0 lf 1024,6 hPa 0,0 l/m 2 min 0 min 165 W/m 18,8 km/h (3 Bft) 97,87 %
06.10.2016 09:56 7,1 C 9,4 C 7,2 C 89 % 0 lf 1024,6 hPa 0,0 l/m 0 min 0 min 161 W/m 20,9 km/h (4 Bft) 95,74 %
06.10.2016 09:58 7,1 C 9,4 C 7,8 C 89 % 0 lf 1024,7 hPa 0,0 l/m 0 min 0 min 150 W/m 16,7 km/h (3 Bft) 91,49 %
06.10.2016 10:00 7,2 C 9,4 C 7,8 C 88 % 0 lf 1024,7 hPa 0,0 l/m 0 min 0 min 145 W/m 12,6 km/h (3 Bft) 93,62 %
06.10.2016 10:02 7,2 C 9,4 C 7,8 C 88 % 0 lf 1024,6 hPa 0,0 l/m 0 min 0 min 145 W/m 14,6 km/h (3 Bft) 93,48 %
06.10.2016 10:04 7,3 C 10,0 C 7,8 C 88 % 0 lf 1024,6 hPa 0,0 l/m 0 min 0 min 167 W/m 10,5 km/h (2 Bft) 93,62 %
06.10.2016 10:06 7,3 C 10,0 C 8,3 C 88 % 0 lf 1024,6 hPa 0,0 l/m 2 min 0 min 202 W/m 14,6 km/h (3 Bft) 91,49 %
06.10.2016 10:08 7,4 C 10,0 C 8,3 C 88 % 0 lf 1024,6 hPa 0,0 l/m 0 min 0 min 174 W/m 16,7 km/h (3 Bft) 95,74 %
06.10.2016 10:10 7,5 C 10,0 C 7,8 C 87 % 0 lf 1024,5 hPa 0,0 l/m 0 min 0 min 136 W/m 16,7 km/h (3 Bft) 95,74 %
06.10.2016 10:12 7,6 C 9,4 C 7,8 C 87 % 0 lf 1024,4 hPa 0,0 l/m 0 min 0 min 134 W/m 16,7 km/h (3 Bft) 95,74 %
06.10.2016 10:14 7,6 C 9,4 C 8,3 C 87 % 0 lf 1024,4 hPa 0,0 l/m 0 min 0 min 138 W/m 14,6 km/h (3 Bft) 95,65 %
06.10.2016 10:16 7,7 C 9,4 C 8,3 C 86 % 0 lf 1024,4 hPa 0,0 l/m 0 min 0 min 141 W/m 16,7 km/h (3 Bft) 93,62 %
06.10.2016 10:18 7,7 C 9,4 C 8,3 C 86 % 0 lf 1024,4 hPa 0,0 l/m 0 min 0 min 147 W/m 14,6 km/h (3 Bft) 95,74 %
06.10.2016 10:20 7,8 C 10,0 C 8,3 C 86 % 0 lf 1024,5 hPa 0,0 l/m 0 min 0 min 160 W/m 12,6 km/h (3 Bft) 95,74 %
06.10.2016 10:22 7,8 C 10,0 C 8,9 C 86 % 0 lf 1024,4 hPa 0,0 l/m 0 min 0 min 159 W/m 18,8 km/h (3 Bft) 95,74 %
06.10.2016 10:24 7,9 C 10,0 C 8,3 C 86 % 0 lf 1024,4 hPa 0,0 l/m 0 min 0 min 153 W/m 20,9 km/h (4 Bft) 93,62 %
06.10.2016 10:26 7,9 C 10,0 C 8,3 C 85 % 0 lf 1024,4 hPa 0,0 l/m 0 min 0 min 169 W/m 14,6 km/h (3 Bft) 91,30 %
06.10.2016 10:28 8,0 C 10,0 C 8,9 C 85 % 0 lf 1024,4 hPa 0,0 l/m 0 min 0 min 178 W/m 18,8 km/h (3 Bft) 95,74 %
06.10.2016 10:30 8,1 C 10,0 C 8,9 C 85 % 0 lf 1024,4 hPa 0,0 l/m 0 min 0 min 182 W/m 14,6 km/h (3 Bft) 95,74 %
06.10.2016 10:32 8,1 C 10,6 C 8,9 C 84 % 0 lf 1024,5 hPa 0,0 l/m 0 min 0 min 187 W/m 12,6 km/h (3 Bft) 93,62 %
06.10.2016 10:34 8,2 C 10,6 C 8,9 C 84 % 0 lf 1024,5 hPa 0,0 l/m 0 min 0 min 196 W/m 18,8 km/h (3 Bft) 97,87 %
06.10.2016 10:36 8,2 C 10,6 C 8,9 C 84 % 0 lf 1024,4 hPa 0,0 l/m 0 min 0 min 197 W/m 20,9 km/h (4 Bft) 95,74 %
06.10.2016 10:38 8,3 C 10,6 C 8,9 C 84 % 0 lf 1024,4 hPa 0,0 l/m 2 min 0 min 209 W/m 18,8 km/h (3 Bft) 93,48 %
06.10.2016 10:40 8,3 C 11,1 C 8,9 C 83 % 0 lf 1024,4 hPa 0,0 l/m 2 min 0 min 226 W/m 18,8 km/h (3 Bft) 91,49 %
06.10.2016 10:42 8,4 C 11,1 C 8,9 C 83 % 0 lf 1024,3 hPa 0,0 l/m 2 min 0 min 226 W/m 23,0 km/h (4 Bft) 95,74 %
06.10.2016 10:44 8,4 C 10,6 C 8,9 C 83 % 0 lf 1024,3 hPa 0,0 l/m 2 min 0 min 211 W/m 29,3 km/h (5 Bft) 95,74 %
06.10.2016 10:46 8,5 C 10,6 C 8,9 C 83 % 0 lf 1024,4 hPa 0,0 l/m 0 min 0 min 208 W/m 16,7 km/h (3 Bft) 95,74 %
06.10.2016 10:48 8,6 C 11,1 C 9,4 C 82 % 0 lf 1024,4 hPa 0,0 l/m 0 min 0 min 211 W/m 18,8 km/h (3 Bft) 87,23 %
06.10.2016 10:50 8,6 C 11,1 C 9,4 C 82 % 0 lf 1024,4 hPa 0,0 l/m 2 min 0 min 222 W/m 23,0 km/h (4 Bft) 93,48 %
06.10.2016 10:52 8,7 C 11,1 C 9,4 C 82 % 0 lf 1024,3 hPa 0,0 l/m 2 min 0 min 218 W/m 25,1 km/h (4 Bft) 95,74 %
06.10.2016 10:54 8,7 C 11,1 C 9,4 C 82 % 0 lf 1024,3 hPa 0,0 l/m 0 min 0 min 212 W/m 16,7 km/h (3 Bft) 97,87 %
06.10.2016 10:56 8,8 C 11,1 C 9,4 C 82 % 0 lf 1024,3 hPa 0,0 l/m 0 min 0 min 205 W/m 16,7 km/h (3 Bft) 95,83 %
06.10.2016 10:58 8,8 C 11,1 C 9,4 C 82 % 0 lf 1024,3 hPa 0,0 l/m 0 min 0 min 199 W/m 18,8 km/h (3 Bft) 95,74 %
06.10.2016 11:00 8,8 C 10,6 C 9,4 C 82 % 0 lf 1024,3 hPa 0,0 l/m 0 min 0 min 189 W/m 23,0 km/h (4 Bft) 97,87 %
06.10.2016 11:02 8,9 C 10,6 C 9,4 C 81 % 0 lf 1024,3 hPa 0,0 l/m 0 min 0 min 189 W/m 20,9 km/h (4 Bft) 97,87 %
06.10.2016 11:04 8,9 C 11,1 C 9,4 C 82 % 0 lf 1024,3 hPa 0,0 l/m 0 min 0 min 194 W/m 23,0 km/h (4 Bft) 95,74 %
06.10.2016 11:06 9,0 C 11,1 C 9,4 C 81 % 0 lf 1024,3 hPa 0,0 l/m 0 min 0 min 204 W/m 18,8 km/h (3 Bft) 93,62 %
06.10.2016 11:08 9,0 C 11,1 C 9,4 C 81 % 0 lf 1024,2 hPa 0,0 l/m 0 min 0 min 212 W/m 23,0 km/h (4 Bft) 93,48 %
06.10.2016 11:10 9,1 C 11,1 C 9,4 C 81 % 0 lf 1024,2 hPa 0,0 l/m 0 min 0 min 219 W/m 20,9 km/h (4 Bft) 100,00 %
06.10.2016 11:12 9,1 C 11,1 C 10,0 C 80 % 0 lf 1024,1 hPa 0,0 l/m 0 min 0 min 217 W/m 27,2 km/h (4 Bft) 97,87 %
06.10.2016 11:14 9,1 C 11,7 C 10,0 C 80 % 0 lf 1024,2 hPa 0,0 l/m 0 min 0 min 217 W/m 14,6 km/h (3 Bft) 100,00 %
06.10.2016 11:16 9,2 C 11,7 C 10,0 C 80 % 0 lf 1024,1 hPa 0,0 l/m 0 min 0 min 212 W/m 18,8 km/h (3 Bft) 100,00 %
06.10.2016 11:18 9,2 C 11,1 C 10,0 C 80 % 0 lf 1024,1 hPa 0,0 l/m 0 min 0 min 220 W/m 18,8 km/h (3 Bft) 100,00 %
06.10.2016 11:20 9,3 C 11,7 C 10,0 C 80 % 0 lf 1024,1 hPa 0,0 l/m 0 min 0 min 224 W/m 20,9 km/h (4 Bft) 93,48 %
06.10.2016 11:22 9,4 C 12,2 C 10,6 C 80 % 0 lf 1024,1 hPa 0,0 l/m 0 min 0 min 223 W/m 14,6 km/h (3 Bft) 95,74 %
06.10.2016 11:24 9,4 C 12,2 C 10,6 C 80 % 0 lf 1024,1 hPa 0,0 l/m 0 min 0 min 220 W/m 23,0 km/h (4 Bft) 100,00 %
06.10.2016 11:26 9,5 C 11,7 C 10,6 C 79 % 0 lf 1024,1 hPa 0,0 l/m 0 min 0 min 214 W/m 23,0 km/h (4 Bft) 100,00 %
06.10.2016 11:28 9,5 C 11,7 C 10,0 C 79 % 0 lf 1024,0 hPa 0,0 l/m 0 min 0 min 217 W/m 20,9 km/h (4 Bft) 95,74 %
06.10.2016 11:30 9,6 C 12,2 C 10,6 C 79 % 0 lf 1024,1 hPa 0,0 l/m 0 min 0 min 222 W/m 14,6 km/h (3 Bft) 100,00 %
06.10.2016 11:32 9,6 C 12,2 C 10,6 C 79 % 0 lf 1024,0 hPa 0,0 l/m 0 min 0 min 248 W/m 23,0 km/h (4 Bft) 97,83 %
06.10.2016 11:34 9,7 C 12,2 C 10,6 C 78 % 0 lf 1024,0 hPa 0,0 l/m 0 min 0 min 226 W/m 14,6 km/h (3 Bft) 95,74 %
06.10.2016 11:36 9,7 C 12,2 C 10,6 C 78 % 0 lf 1024,0 hPa 0,0 l/m 0 min 0 min 217 W/m 23,0 km/h (4 Bft) 97,87 %
06.10.2016 11:38 9,8 C 12,2 C 10,6 C 77 % 0 lf 1023,9 hPa 0,0 l/m 0 min 0 min 237 W/m 18,8 km/h (3 Bft) 100,00 %
06.10.2016 11:40 9,8 C 12,2 C 10,6 C 77 % 0 lf 1023,9 hPa 0,0 l/m 0 min 0 min 252 W/m 20,9 km/h (4 Bft) 100,00 %
06.10.2016 11:42 9,9 C 12,8 C 11,1 C 77 % 0 lf 1023,9 hPa 0,0 l/m 2 min 0 min 269 W/m 20,9 km/h (4 Bft) 100,00 %
06.10.2016 11:44 9,9 C 12,8 C 11,1 C 77 % 0 lf 1023,9 hPa 0,0 l/m 2 min 0 min 287 W/m 18,8 km/h (3 Bft) 100,00 %
06.10.2016 11:46 10,0 C 13,3 C 11,1 C 77 % 0 lf 1023,9 hPa 0,0 l/m 2 min 0 min 284 W/m 23,0 km/h (4 Bft) 100,00 %
06.10.2016 11:48 10,1 C 13,3 C 11,1 C 77 % 0 lf 1023,9 hPa 0,0 l/m 2 min 0 min 273 W/m 20,9 km/h (4 Bft) 97,87 %
06.10.2016 11:50 10,2 C 13,9 C 11,1 C 77 % 0 lf 1023,7 hPa 0,0 l/m 2 min 0 min 299 W/m 25,1 km/h (4 Bft) 100,00 %
06.10.2016 11:52 10,2 C 13,3 C 10,6 C 76 % 0 lf 1023,7 hPa 0,0 l/m 2 min 0 min 302 W/m 23,0 km/h (4 Bft) 100,00 %
06.10.2016 11:54 10,3 C 13,9 C 11,1 C 76 % 0 lf 1023,7 hPa 0,0 l/m 2 min 0 min 350 W/m 20,9 km/h (4 Bft) 100,00 %
06.10.2016 11:56 10,3 C 13,9 C 11,7 C 76 % 0 lf 1023,7 hPa 0,0 l/m 2 min 0 min 406 W/m 23,0 km/h (4 Bft) 95,65 %
06.10.2016 11:58 10,4 C 13,3 C 11,7 C 76 % 0 lf 1023,7 hPa 0,0 l/m 2 min 0 min 290 W/m 20,9 km/h (4 Bft) 97,87 %
06.10.2016 12:00 10,4 C 13,9 C 11,7 C 76 % 0 lf 1023,7 hPa 0,0 l/m 0 min 0 min 254 W/m 18,8 km/h (3 Bft) 100,00 %
06.10.2016 12:02 10,5 C 13,3 C 11,1 C 76 % 0 lf 1023,7 hPa 0,0 l/m 0 min 0 min 227 W/m 23,0 km/h (4 Bft) 97,87 %
06.10.2016 12:06 10,6 C 12,2 C 11,1 C 75 % 0 lf 1023,8 hPa 0,0 l/m 0 min 0 min 210 W/m 23,0 km/h (4 Bft) 96,84 %
06.10.2016 12:08 10,6 C 12,2 C 11,1 C 75 % 0 lf 1023,8 hPa 0,0 l/m 0 min 0 min 204 W/m 18,8 km/h (3 Bft) 100,00 %
06.10.2016 12:10 10,6 C 12,2 C 11,1 C 75 % 0 lf 1023,8 hPa 0,0 l/m 0 min 0 min 188 W/m 20,9 km/h (4 Bft) 100,00 %
06.10.2016 12:12 10,7 C 12,2 C 11,1 C 75 % 0 lf 1023,8 hPa 0,0 l/m 0 min 0 min 170 W/m 29,3 km/h (5 Bft) 97,87 %
06.10.2016 12:14 10,7 C 12,2 C 11,1 C 75 % 0 lf 1023,8 hPa 0,0 l/m 0 min 0 min 164 W/m 33,5 km/h (5 Bft) 95,74 %
06.10.2016 12:16 10,7 C 12,2 C 10,6 C 75 % 0 lf 1023,9 hPa 0,0 l/m 0 min 0 min 159 W/m 25,1 km/h (4 Bft) 97,87 %
06.10.2016 12:18 10,7 C 12,2 C 10,6 C 75 % 0 lf 1023,8 hPa 0,0 l/m 0 min 0 min 140 W/m 25,1 km/h (4 Bft) 97,83 %
06.10.2016 12:20 10,7 C 11,7 C 10,6 C 75 % 0 lf 1023,8 hPa 0,0 l/m 0 min 0 min 129 W/m 14,6 km/h (3 Bft) 97,87 %
06.10.2016 12:22 10,7 C 12,2 C 10,6 C 75 % 0 lf 1023,8 hPa 0,0 l/m 0 min 0 min 140 W/m 25,1 km/h (4 Bft) 97,87 %
06.10.2016 12:24 10,7 C 12,2 C 11,1 C 75 % 0 lf 1023,8 hPa 0,0 l/m 0 min 0 min 158 W/m 35,6 km/h (5 Bft) 91,49 %
06.10.2016 12:26 10,7 C 12,2 C 11,1 C 75 % 0 lf 1023,8 hPa 0,0 l/m 0 min 0 min 167 W/m 33,5 km/h (5 Bft) 91,49 %
06.10.2016 12:28 10,7 C 12,2 C 11,1 C 75 % 0 lf 1023,8 hPa 0,0 l/m 0 min 0 min 182 W/m 20,9 km/h (4 Bft) 97,87 %
06.10.2016 12:30 10,7 C 12,2 C 11,7 C 75 % 0 lf 1023,8 hPa 0,0 l/m 0 min 0 min 215 W/m 29,3 km/h (5 Bft) 97,83 %
06.10.2016 12:32 10,8 C 12,8 C 11,7 C 75 % 0 lf 1023,7 hPa 0,0 l/m 0 min 0 min 238 W/m 20,9 km/h (4 Bft) 95,74 %
06.10.2016 12:34 10,8 C 12,2 C 11,7 C 75 % 0 lf 1023,7 hPa 0,0 l/m 0 min 0 min 224 W/m 14,6 km/h (3 Bft) 95,74 %
06.10.2016 12:36 10,8 C 12,8 C 11,7 C 75 % 0 lf 1023,7 hPa 0,0 l/m 0 min 0 min 213 W/m 18,8 km/h (3 Bft) 95,74 %
06.10.2016 12:38 10,8 C 12,8 C 11,7 C 75 % 0 lf 1023,7 hPa 0,0 l/m 0 min 0 min 194 W/m 18,8 km/h (3 Bft) 97,87 %
06.10.2016 12:40 10,8 C 12,8 C 11,7 C 75 % 0 lf 1023,7 hPa 0,0 l/m 0 min 0 min 192 W/m 18,8 km/h (3 Bft) 93,62 %
06.10.2016 12:42 10,9 C 12,8 C 11,7 C 75 % 0 lf 1023,7 hPa 0,0 l/m 0 min 0 min 185 W/m 16,7 km/h (3 Bft) 93,48 %
06.10.2016 12:44 10,9 C 12,8 C 11,7 C 75 % 0 lf 1023,7 hPa 0,0 l/m 0 min 0 min 154 W/m 23,0 km/h (4 Bft) 93,62 %
06.10.2016 12:46 10,9 C 12,2 C 11,1 C 75 % 0 lf 1023,7 hPa 0,0 l/m 0 min 0 min 127 W/m 25,1 km/h (4 Bft) 91,49 %
06.10.2016 12:48 10,9 C 12,2 C 11,1 C 75 % 0 lf 1023,7 hPa 0,0 l/m 0 min 0 min 114 W/m 20,9 km/h (4 Bft) 91,49 %
06.10.2016 12:50 10,9 C 12,2 C 10,6 C 75 % 0 lf 1023,7 hPa 0,0 l/m 0 min 0 min 108 W/m 20,9 km/h (4 Bft) 91,49 %
06.10.2016 12:52 10,9 C 12,2 C 10,6 C 75 % 0 lf 1023,7 hPa 0,0 l/m 0 min 0 min 115 W/m 20,9 km/h (4 Bft) 91,49 %
06.10.2016 12:54 10,9 C 11,7 C 10,6 C 75 % 0 lf 1023,6 hPa 0,0 l/m 0 min 0 min 127 W/m 20,9 km/h (4 Bft) 89,13 %
06.10.2016 12:56 10,9 C 12,2 C 10,6 C 75 % 0 lf 1023,7 hPa 0,0 l/m 0 min 0 min 141 W/m 25,1 km/h (4 Bft) 91,49 %
06.10.2016 12:58 10,9 C 11,7 C 11,1 C 76 % 0 lf 1023,6 hPa 0,0 l/m 0 min 0 min 151 W/m 31,4 km/h (5 Bft) 85,11 %
06.10.2016 13:00 10,9 C 11,7 C 11,1 C 76 % 0 lf 1023,7 hPa 0,0 l/m 0 min 0 min 158 W/m 27,2 km/h (4 Bft) 93,62 %
06.10.2016 13:02 10,9 C 12,2 C 11,1 C 76 % 0 lf 1023,7 hPa 0,0 l/m 0 min 0 min 155 W/m 29,3 km/h (5 Bft) 91,49 %
06.10.2016 13:04 10,9 C 12,2 C 11,1 C 76 % 0 lf 1023,7 hPa 0,0 l/m 0 min 0 min 159 W/m 25,1 km/h (4 Bft) 91,30 %
06.10.2016 13:06 10,9 C 12,2 C 11,1 C 77 % 0 lf 1023,6 hPa 0,0 l/m 0 min 0 min 165 W/m 23,0 km/h (4 Bft) 89,36 %
06.10.2016 13:08 11,0 C 12,2 C 11,7 C 77 % 0 lf 1023,6 hPa 0,0 l/m 0 min 0 min 162 W/m 29,3 km/h (5 Bft) 85,11 %
06.10.2016 13:10 11,0 C 12,2 C 11,7 C 77 % 0 lf 1023,6 hPa 0,0 l/m 0 min 0 min 166 W/m 20,9 km/h (4 Bft) 91,49 %
06.10.2016 13:12 11,0 C 12,2 C 11,1 C 77 % 0 lf 1023,5 hPa 0,0 l/m 0 min 0 min 163 W/m 25,1 km/h (4 Bft) 91,49 %
06.10.2016 13:14 11,1 C 12,2 C 11,7 C 77 % 0 lf 1023,5 hPa 0,0 l/m 0 min 0 min 173 W/m 27,2 km/h (4 Bft) 93,62 %
06.10.2016 13:16 11,1 C 12,2 C 11,7 C 77 % 0 lf 1023,4 hPa 0,0 l/m 0 min 0 min 167 W/m 18,8 km/h (3 Bft) 93,48 %
06.10.2016 13:18 11,1 C 12,8 C 11,7 C 77 % 0 lf 1023,4 hPa 0,0 l/m 0 min 0 min 160 W/m 18,8 km/h (3 Bft) 95,74 %
06.10.2016 13:20 11,1 C 12,2 C 11,7 C 77 % 0 lf 1023,4 hPa 0,0 l/m 0 min 0 min 154 W/m 27,2 km/h (4 Bft) 93,62 %
06.10.2016 13:22 11,1 C 12,2 C 11,1 C 77 % 0 lf 1023,5 hPa 0,0 l/m 0 min 0 min 132 W/m 27,2 km/h (4 Bft) 95,74 %
06.10.2016 13:24 11,1 C 12,2 C 11,1 C 77 % 0 lf 1023,4 hPa 0,0 l/m 0 min 0 min 134 W/m 31,4 km/h (5 Bft) 95,74 %
06.10.2016 13:26 11,1 C 12,2 C 11,1 C 77 % 0 lf 1023,3 hPa 0,0 l/m 0 min 0 min 158 W/m 31,4 km/h (5 Bft) 91,49 %
06.10.2016 13:28 11,1 C 12,2 C 11,1 C 77 % 0 lf 1023,4 hPa 0,0 l/m 0 min 0 min 178 W/m 27,2 km/h (4 Bft) 95,65 %
06.10.2016 13:30 11,1 C 12,2 C 11,7 C 77 % 0 lf 1023,3 hPa 0,0 l/m 0 min 0 min 201 W/m 37,7 km/h (5 Bft) 95,74 %
06.10.2016 13:32 11,1 C 12,2 C 11,7 C 77 % 0 lf 1023,4 hPa 0,0 l/m 0 min 0 min 202 W/m 29,3 km/h (5 Bft) 91,49 %
06.10.2016 13:34 11,1 C 12,8 C 11,7 C 77 % 0 lf 1023,3 hPa 0,0 l/m 0 min 0 min 179 W/m 29,3 km/h (5 Bft) 95,74 %
06.10.2016 13:36 11,1 C 12,8 C 11,1 C 77 % 0 lf 1023,2 hPa 0,0 l/m 0 min 0 min 178 W/m 29,3 km/h (5 Bft) 95,74 %
06.10.2016 13:38 11,1 C 12,8 C 11,7 C 78 % 0 lf 1023,3 hPa 0,0 l/m 0 min 0 min 174 W/m 23,0 km/h (4 Bft) 97,87 %
06.10.2016 13:40 11,2 C 12,8 C 11,1 C 77 % 0 lf 1023,2 hPa 0,0 l/m 0 min 0 min 154 W/m 23,0 km/h (4 Bft) 95,65 %
06.10.2016 13:42 11,2 C 12,2 C 11,1 C 77 % 0 lf 1023,1 hPa 0,0 l/m 0 min 0 min 159 W/m 27,2 km/h (4 Bft) 97,87 %
06.10.2016 13:44 11,2 C 12,2 C 11,1 C 77 % 0 lf 1023,1 hPa 0,0 l/m 0 min 0 min 162 W/m 33,5 km/h (5 Bft) 100,00 %
06.10.2016 13:46 11,2 C 12,2 C 11,1 C 78 % 0 lf 1023,1 hPa 0,0 l/m 0 min 0 min 153 W/m 25,1 km/h (4 Bft) 100,00 %
06.10.2016 13:48 11,2 C 12,2 C 11,7 C 78 % 0 lf 1023,1 hPa 0,0 l/m 0 min 0 min 152 W/m 31,4 km/h (5 Bft) 100,00 %
06.10.2016 13:50 11,2 C 12,2 C 11,7 C 78 % 0 lf 1023,1 hPa 0,0 l/m 0 min 0 min 147 W/m 25,1 km/h (4 Bft) 95,74 %
06.10.2016 13:52 11,2 C 12,2 C 11,7 C 78 % 0 lf 1023,0 hPa 0,0 l/m 0 min 0 min 151 W/m 23,0 km/h (4 Bft) 100,00 %
06.10.2016 13:54 11,2 C 12,2 C 11,7 C 78 % 0 lf 1023,0 hPa 0,0 l/m 0 min 0 min 156 W/m 27,2 km/h (4 Bft) 100,00 %
06.10.2016 13:56 11,2 C 12,2 C 11,7 C 78 % 0 lf 1023,0 hPa 0,0 l/m 0 min 0 min 163 W/m 29,3 km/h (5 Bft) 97,87 %
06.10.2016 13:58 11,2 C 12,8 C 11,7 C 78 % 0 lf 1022,9 hPa 0,0 l/m 0 min 0 min 161 W/m 16,7 km/h (3 Bft) 100,00 %
06.10.2016 14:00 11,3 C 12,8 C 11,7 C 78 % 0 lf 1022,9 hPa 0,0 l/m 0 min 0 min 155 W/m 23,0 km/h (4 Bft) 97,87 %
06.10.2016 14:02 11,2 C 12,8 C 11,1 C 78 % 0 lf 1022,9 hPa 0,0 l/m 0 min 0 min 169 W/m 25,1 km/h (4 Bft) 97,87 %
06.10.2016 14:04 11,3 C 12,8 C 11,7 C 78 % 0 lf 1022,9 hPa 0,0 l/m 0 min 0 min 190 W/m 31,4 km/h (5 Bft) 97,83 %
06.10.2016 14:06 11,2 C 12,8 C 11,1 C 78 % 0 lf 1022,9 hPa 0,0 l/m 0 min 0 min 196 W/m 27,2 km/h (4 Bft) 100,00 %
06.10.2016 14:08 11,2 C 12,8 C 11,7 C 78 % 0 lf 1022,9 hPa 0,0 l/m 0 min 0 min 210 W/m 31,4 km/h (5 Bft) 100,00 %
06.10.2016 14:10 11,3 C 12,8 C 11,7 C 78 % 0 lf 1022,9 hPa 0,0 l/m 0 min 0 min 219 W/m 25,1 km/h (4 Bft) 97,87 %
06.10.2016 14:12 11,3 C 12,8 C 11,7 C 78 % 0 lf 1022,9 hPa 0,0 l/m 0 min 0 min 212 W/m 27,2 km/h (4 Bft) 100,00 %
06.10.2016 14:14 11,3 C 13,3 C 12,2 C 78 % 0 lf 1022,9 hPa 0,0 l/m 0 min 0 min 244 W/m 23,0 km/h (4 Bft) 97,87 %
06.10.2016 14:16 11,3 C 13,3 C 12,2 C 78 % 0 lf 1022,9 hPa 0,0 l/m 0 min 0 min 262 W/m 33,5 km/h (5 Bft) 100,00 %
06.10.2016 14:18 11,4 C 13,9 C 12,2 C 78 % 0 lf 1022,9 hPa 0,0 l/m 0 min 0 min 258 W/m 29,3 km/h (5 Bft) 97,87 %
06.10.2016 14:20 11,4 C 13,9 C 12,2 C 79 % 0 lf 1022,9 hPa 0,0 l/m 0 min 0 min 224 W/m 20,9 km/h (4 Bft) 97,87 %
06.10.2016 14:22 11,4 C 13,9 C 12,2 C 79 % 0 lf 1022,8 hPa 0,0 l/m 0 min 0 min 198 W/m 23,0 km/h (4 Bft) 97,87 %
06.10.2016 14:24 11,5 C 13,3 C 12,8 C 79 % 0 lf 1022,8 hPa 0,0 l/m 0 min 0 min 201 W/m 20,9 km/h (4 Bft) 100,00 %
06.10.2016 14:26 11,6 C 13,3 C 12,2 C 79 % 0 lf 1022,8 hPa 0,0 l/m 0 min 0 min 201 W/m 31,4 km/h (5 Bft) 100,00 %
06.10.2016 14:28 11,6 C 13,3 C 12,2 C 79 % 0 lf 1022,8 hPa 0,0 l/m 0 min 0 min 197 W/m 25,1 km/h (4 Bft) 100,00 %
06.10.2016 14:30 11,6 C 13,3 C 12,2 C 79 % 0 lf 1022,7 hPa 0,0 l/m 0 min 0 min 180 W/m 20,9 km/h (4 Bft) 97,87 %
06.10.2016 14:32 11,6 C 13,3 C 12,2 C 78 % 0 lf 1022,8 hPa 0,0 l/m 0 min 0 min 175 W/m 33,5 km/h (5 Bft) 97,87 %
06.10.2016 14:34 11,6 C 12,8 C 11,7 C 78 % 0 lf 1022,7 hPa 0,0 l/m 0 min 0 min 175 W/m 25,1 km/h (4 Bft) 100,00 %
06.10.2016 14:36 11,6 C 12,8 C 11,7 C 78 % 0 lf 1022,7 hPa 0,0 l/m 0 min 0 min 177 W/m 18,8 km/h (3 Bft) 100,00 %
06.10.2016 14:38 11,6 C 12,8 C 11,7 C 78 % 0 lf 1022,7 hPa 0,0 l/m 0 min 0 min 144 W/m 20,9 km/h (4 Bft) 97,83 %
06.10.2016 14:40 11,6 C 12,8 C 11,7 C 78 % 0 lf 1022,7 hPa 0,0 l/m 0 min 0 min 132 W/m 23,0 km/h (4 Bft) 95,74 %
06.10.2016 14:42 11,6 C 12,8 C 11,7 C 78 % 0 lf 1022,7 hPa 0,0 l/m 0 min 0 min 113 W/m 33,5 km/h (5 Bft) 97,87 %
06.10.2016 14:44 11,6 C 12,2 C 11,1 C 78 % 0 lf 1022,7 hPa 0,0 l/m 0 min 0 min 99 W/m 29,3 km/h (5 Bft) 97,87 %
06.10.2016 14:46 11,6 C 12,2 C 11,1 C 78 % 0 lf 1022,7 hPa 0,0 l/m 0 min 0 min 101 W/m 25,1 km/h (4 Bft) 97,87 %
06.10.2016 14:48 11,5 C 12,2 C 11,1 C 78 % 0 lf 1022,7 hPa 0,0 l/m 0 min 0 min 106 W/m 27,2 km/h (4 Bft) 93,62 %
06.10.2016 14:50 11,4 C 11,7 C 10,6 C 78 % 0 lf 1022,6 hPa 0,0 l/m 0 min 0 min 92 W/m 25,1 km/h (4 Bft) 97,83 %
06.10.2016 14:52 11,4 C 11,7 C 10,6 C 78 % 0 lf 1022,6 hPa 0,0 l/m 0 min 0 min 92 W/m 27,2 km/h (4 Bft) 97,87 %
06.10.2016 14:54 11,4 C 12,2 C 10,6 C 79 % 0 lf 1022,6 hPa 0,0 l/m 0 min 0 min 106 W/m 20,9 km/h (4 Bft) 97,87 %
06.10.2016 14:56 11,3 C 12,2 C 11,1 C 79 % 0 lf 1022,6 hPa 0,0 l/m 0 min 0 min 117 W/m 20,9 km/h (4 Bft) 93,62 %
06.10.2016 14:58 11,3 C 12,2 C 11,1 C 79 % 0 lf 1022,6 hPa 0,0 l/m 0 min 0 min 127 W/m 23,0 km/h (4 Bft) 97,87 %
06.10.2016 15:00 11,3 C 12,8 C 11,7 C 80 % 0 lf 1022,5 hPa 0,0 l/m 0 min 0 min 129 W/m 12,6 km/h (3 Bft) 97,87 %
06.10.2016 15:02 11,4 C 12,2 C 11,7 C 80 % 0 lf 1022,5 hPa 0,0 l/m 0 min 0 min 138 W/m 16,7 km/h (3 Bft) 93,48 %
06.10.2016 15:04 11,3 C 12,2 C 11,7 C 80 % 0 lf 1022,5 hPa 0,0 l/m 0 min 0 min 136 W/m 27,2 km/h (4 Bft) 100,00 %
06.10.2016 15:06 11,4 C 12,2 C 11,7 C 80 % 0 lf 1022,4 hPa 0,0 l/m 0 min 0 min 137 W/m 14,6 km/h (3 Bft) 97,87 %
06.10.2016 15:08 11,4 C 12,8 C 11,7 C 80 % 0 lf 1022,4 hPa 0,0 l/m 0 min 0 min 147 W/m 18,8 km/h (3 Bft) 95,74 %
06.10.2016 15:10 11,4 C 12,8 C 11,7 C 80 % 0 lf 1022,4 hPa 0,0 l/m 0 min 0 min 148 W/m 18,8 km/h (3 Bft) 95,74 %
06.10.2016 15:12 11,4 C 12,8 C 11,7 C 80 % 0 lf 1022,3 hPa 0,0 l/m 0 min 0 min 137 W/m 14,6 km/h (3 Bft) 97,87 %
06.10.2016 15:14 11,4 C 12,8 C 12,2 C 80 % 0 lf 1022,3 hPa 0,0 l/m 0 min 0 min 152 W/m 20,9 km/h (4 Bft) 100,00 %
06.10.2016 15:16 11,4 C 12,8 C 11,7 C 80 % 0 lf 1022,2 hPa 0,0 l/m 0 min 0 min 159 W/m 23,0 km/h (4 Bft) 100,00 %
06.10.2016 15:18 11,5 C 12,8 C 11,7 C 80 % 0 lf 1022,2 hPa 0,0 l/m 0 min 0 min 169 W/m 23,0 km/h (4 Bft) 100,00 %
06.10.2016 15:20 11,5 C 12,8 C 12,2 C 79 % 0 lf 1022,3 hPa 0,0 l/m 0 min 0 min 188 W/m 16,7 km/h (3 Bft) 95,74 %
06.10.2016 15:22 11,5 C 13,3 C 12,2 C 80 % 0 lf 1022,2 hPa 0,0 l/m 0 min 0 min 186 W/m 14,6 km/h (3 Bft) 97,87 %
06.10.2016 15:24 11,6 C 12,8 C 12,2 C 80 % 0 lf 1022,2 hPa 0,0 l/m 0 min 0 min 170 W/m 29,3 km/h (5 Bft) 100,00 %
06.10.2016 15:26 11,6 C 12,8 C 12,2 C 79 % 0 lf 1022,2 hPa 0,0 l/m 0 min 0 min 155 W/m 27,2 km/h (4 Bft) 97,83 %
06.10.2016 15:28 11,6 C 12,8 C 11,7 C 79 % 0 lf 1022,1 hPa 0,0 l/m 0 min 0 min 115 W/m 18,8 km/h (3 Bft) 100,00 %
06.10.2016 15:30 11,6 C 12,8 C 12,2 C 79 % 0 lf 1022,1 hPa 0,0 l/m 0 min 0 min 140 W/m 20,9 km/h (4 Bft) 97,87 %
06.10.2016 15:32 11,6 C 12,2 C 12,2 C 79 % 0 lf 1022,1 hPa 0,0 l/m 0 min 0 min 142 W/m 27,2 km/h (4 Bft) 95,74 %
06.10.2016 15:34 11,6 C 12,2 C 11,7 C 79 % 0 lf 1022,1 hPa 0,0 l/m 0 min 0 min 148 W/m 27,2 km/h (4 Bft) 95,74 %
06.10.2016 15:36 11,6 C 12,2 C 11,7 C 79 % 0 lf 1022,1 hPa 0,0 l/m 0 min 0 min 130 W/m 14,6 km/h (3 Bft) 100,00 %
06.10.2016 15:38 11,6 C 12,2 C 11,7 C 79 % 0 lf 1022,1 hPa 0,0 l/m 0 min 0 min 119 W/m 20,9 km/h (4 Bft) 95,65 %
06.10.2016 15:40 11,6 C 12,8 C 11,7 C 79 % 0 lf 1022,1 hPa 0,0 l/m 0 min 0 min 139 W/m 25,1 km/h (4 Bft) 93,62 %
06.10.2016 15:42 11,6 C 12,8 C 11,7 C 79 % 0 lf 1022,0 hPa 0,0 l/m 0 min 0 min 147 W/m 27,2 km/h (4 Bft) 93,62 %
06.10.2016 15:44 11,6 C 12,8 C 11,7 C 79 % 0 lf 1022,0 hPa 0,0 l/m 0 min 0 min 156 W/m 16,7 km/h (3 Bft) 93,62 %
06.10.2016 15:46 11,6 C 12,8 C 11,7 C 79 % 0 lf 1022,0 hPa 0,0 l/m 0 min 0 min 143 W/m 18,8 km/h (3 Bft) 91,49 %
06.10.2016 15:48 11,6 C 12,8 C 11,7 C 79 % 0 lf 1022,0 hPa 0,0 l/m 0 min 0 min 103 W/m 18,8 km/h (3 Bft) 93,48 %
06.10.2016 15:50 11,6 C 12,8 C 11,7 C 79 % 0 lf 1022,0 hPa 0,0 l/m 0 min 0 min 141 W/m 16,7 km/h (3 Bft) 93,62 %
06.10.2016 15:52 11,7 C 12,8 C 12,2 C 80 % 0 lf 1022,1 hPa 0,0 l/m 0 min 0 min 177 W/m 16,7 km/h (3 Bft) 87,23 %
06.10.2016 15:54 11,7 C 12,8 C 12,2 C 80 % 0 lf 1022,1 hPa 0,0 l/m 0 min 0 min 168 W/m 20,9 km/h (4 Bft) 91,49 %
06.10.2016 15:56 11,7 C 13,3 C 12,2 C 79 % 0 lf 1022,0 hPa 0,0 l/m 0 min 0 min 160 W/m 16,7 km/h (3 Bft) 89,36 %
06.10.2016 15:58 11,7 C 12,8 C 12,2 C 79 % 0 lf 1022,0 hPa 0,0 l/m 0 min 0 min 138 W/m 23,0 km/h (4 Bft) 93,62 %
06.10.2016 16:00 11,7 C 12,8 C 11,7 C 79 % 0 lf 1022,0 hPa 0,0 l/m 0 min 0 min 118 W/m 29,3 km/h (5 Bft) 91,30 %
06.10.2016 16:02 11,7 C 12,2 C 11,7 C 79 % 0 lf 1022,0 hPa 0,0 l/m 0 min 0 min 104 W/m 27,2 km/h (4 Bft) 91,49 %
06.10.2016 16:04 11,7 C 12,2 C 11,7 C 79 % 0 lf 1022,0 hPa 0,0 l/m 0 min 0 min 106 W/m 23,0 km/h (4 Bft) 89,36 %
06.10.2016 16:06 11,7 C 12,2 C 11,7 C 79 % 0 lf 1022,0 hPa 0,0 l/m 0 min 0 min 120 W/m 18,8 km/h (3 Bft) 87,23 %
06.10.2016 16:08 11,7 C 12,8 C 11,7 C 79 % 0 lf 1021,9 hPa 0,0 l/m 0 min 0 min 131 W/m 18,8 km/h (3 Bft) 93,62 %
06.10.2016 16:10 11,7 C 12,8 C 11,7 C 79 % 0 lf 1022,0 hPa 0,0 l/m 0 min 0 min 147 W/m 23,0 km/h (4 Bft) 95,65 %
06.10.2016 16:12 11,7 C 12,8 C 11,7 C 79 % 0 lf 1022,0 hPa 0,0 l/m 0 min 0 min 147 W/m 29,3 km/h (5 Bft) 91,30 %
06.10.2016 16:14 11,7 C 12,8 C 11,7 C 79 % 0 lf 1021,9 hPa 0,0 l/m 0 min 0 min 133 W/m 20,9 km/h (4 Bft) 93,62 %
06.10.2016 16:16 11,6 C 12,8 C 11,7 C 79 % 0 lf 1021,9 hPa 0,0 l/m 0 min 0 min 113 W/m 27,2 km/h (4 Bft) 93,62 %
06.10.2016 16:18 11,6 C 12,2 C 11,7 C 79 % 0 lf 1021,9 hPa 0,0 l/m 0 min 0 min 95 W/m 25,1 km/h (4 Bft) 91,49 %
06.10.2016 16:20 11,6 C 12,2 C 11,1 C 79 % 0 lf 1021,8 hPa 0,0 l/m 0 min 0 min 116 W/m 25,1 km/h (4 Bft) 91,49 %
06.10.2016 16:22 11,6 C 12,8 C 11,7 C 79 % 0 lf 1021,8 hPa 0,0 l/m 2 min 0 min 201 W/m 25,1 km/h (4 Bft) 91,49 %
06.10.2016 16:24 11,6 C 13,3 C 11,7 C 79 % 0 lf 1021,8 hPa 0,0 l/m 2 min 0 min 206 W/m 31,4 km/h (5 Bft) 95,65 %
06.10.2016 16:26 11,6 C 13,3 C 11,7 C 79 % 0 lf 1021,8 hPa 0,0 l/m 0 min 0 min 149 W/m 25,1 km/h (4 Bft) 91,49 %
06.10.2016 16:28 11,7 C 12,8 C 11,7 C 79 % 0 lf 1021,8 hPa 0,0 l/m 0 min 0 min 112 W/m 29,3 km/h (5 Bft) 95,74 %
06.10.2016 16:30 11,7 C 12,8 C 11,7 C 79 % 0 lf 1021,8 hPa 0,0 l/m 0 min 0 min 135 W/m 20,9 km/h (4 Bft) 95,74 %
06.10.2016 16:32 11,7 C 12,8 C 11,7 C 79 % 0 lf 1021,8 hPa 0,0 l/m 0 min 0 min 145 W/m 20,9 km/h (4 Bft) 89,36 %
06.10.2016 16:34 11,7 C 12,8 C 11,7 C 79 % 0 lf 1021,8 hPa 0,0 l/m 0 min 0 min 147 W/m 23,0 km/h (4 Bft) 95,74 %
06.10.2016 16:36 11,7 C 12,8 C 11,7 C 80 % 0 lf 1021,9 hPa 0,0 l/m 0 min 0 min 136 W/m 20,9 km/h (4 Bft) 91,30 %
06.10.2016 16:38 11,7 C 12,8 C 11,7 C 80 % 0 lf 1021,9 hPa 0,0 l/m 0 min 0 min 126 W/m 23,0 km/h (4 Bft) 95,74 %
06.10.2016 16:40 11,7 C 12,8 C 11,7 C 80 % 0 lf 1021,9 hPa 0,0 l/m 0 min 0 min 106 W/m 23,0 km/h (4 Bft) 93,62 %
06.10.2016 16:42 11,7 C 12,8 C 11,7 C 79 % 0 lf 1021,9 hPa 0,0 l/m 0 min 0 min 101 W/m 27,2 km/h (4 Bft) 93,62 %
06.10.2016 16:44 11,8 C 12,8 C 11,7 C 79 % 0 lf 1021,8 hPa 0,0 l/m 0 min 0 min 92 W/m 20,9 km/h (4 Bft) 93,62 %
06.10.2016 16:46 11,8 C 12,8 C 11,7 C 79 % 0 lf 1021,8 hPa 0,0 l/m 0 min 0 min 86 W/m 20,9 km/h (4 Bft) 97,87 %
06.10.2016 16:48 11,8 C 12,8 C 11,7 C 79 % 0 lf 1021,9 hPa 0,0 l/m 0 min 0 min 94 W/m 23,0 km/h (4 Bft) 97,83 %
06.10.2016 16:50 11,8 C 12,2 C 11,7 C 79 % 0 lf 1021,9 hPa 0,0 l/m 0 min 0 min 86 W/m 31,4 km/h (5 Bft) 93,62 %
06.10.2016 16:52 11,8 C 12,2 C 11,7 C 79 % 0 lf 1021,9 hPa 0,0 l/m 0 min 0 min 84 W/m 31,4 km/h (5 Bft) 97,87 %
06.10.2016 16:54 11,7 C 12,2 C 11,7 C 79 % 0 lf 1021,9 hPa 0,0 l/m 0 min 0 min 84 W/m 27,2 km/h (4 Bft) 93,62 %
06.10.2016 16:56 11,7 C 12,2 C 11,7 C 79 % 0 lf 1021,8 hPa 0,0 l/m 0 min 0 min 88 W/m 20,9 km/h (4 Bft) 95,74 %
06.10.2016 16:58 11,7 C 12,2 C 11,7 C 79 % 0 lf 1021,9 hPa 0,0 l/m 0 min 0 min 91 W/m 16,7 km/h (3 Bft) 93,48 %
06.10.2016 17:00 11,7 C 12,2 C 11,7 C 80 % 0 lf 1021,9 hPa 0,0 l/m 0 min 0 min 89 W/m 14,6 km/h (3 Bft) 93,62 %
06.10.2016 17:02 11,7 C 12,2 C 11,7 C 80 % 0 lf 1021,8 hPa 0,0 l/m 0 min 0 min 87 W/m 25,1 km/h (4 Bft) 97,87 %
06.10.2016 17:04 11,7 C 12,2 C 11,7 C 80 % 0 lf 1021,8 hPa 0,0 l/m 0 min 0 min 92 W/m 23,0 km/h (4 Bft) 97,87 %
06.10.2016 17:06 11,7 C 12,2 C 11,1 C 79 % 0 lf 1021,8 hPa 0,0 l/m 0 min 0 min 92 W/m 23,0 km/h (4 Bft) 95,74 %
06.10.2016 17:08 11,7 C 12,2 C 11,7 C 80 % 0 lf 1021,8 hPa 0,0 l/m 0 min 0 min 95 W/m 20,9 km/h (4 Bft) 95,74 %
06.10.2016 17:10 11,7 C 12,2 C 11,7 C 80 % 0 lf 1021,8 hPa 0,0 l/m 0 min 0 min 96 W/m 20,9 km/h (4 Bft) 97,83 %
06.10.2016 17:12 11,7 C 12,2 C 11,7 C 80 % 0 lf 1021,8 hPa 0,0 l/m 0 min 0 min 91 W/m 20,9 km/h (4 Bft) 93,62 %
06.10.2016 17:14 11,7 C 12,2 C 11,1 C 80 % 0 lf 1021,8 hPa 0,0 l/m 0 min 0 min 84 W/m 20,9 km/h (4 Bft) 100,00 %
06.10.2016 17:16 11,7 C 12,2 C 11,1 C 80 % 0 lf 1021,8 hPa 0,0 l/m 0 min 0 min 80 W/m 33,5 km/h (5 Bft) 97,87 %
06.10.2016 17:18 11,7 C 12,2 C 11,1 C 80 % 0 lf 1021,8 hPa 0,0 l/m 0 min 0 min 76 W/m 16,7 km/h (3 Bft) 100,00 %
06.10.2016 17:20 11,7 C 12,2 C 11,1 C 80 % 0 lf 1021,8 hPa 0,0 l/m 0 min 0 min 73 W/m 20,9 km/h (4 Bft) 100,00 %
06.10.2016 17:22 11,7 C 12,2 C 11,1 C 80 % 0 lf 1021,8 hPa 0,0 l/m 0 min 0 min 70 W/m 20,9 km/h (4 Bft) 100,00 %
06.10.2016 17:24 11,7 C 12,2 C 11,1 C 80 % 0 lf 1021,8 hPa 0,0 l/m 0 min 0 min 70 W/m 29,3 km/h (5 Bft) 100,00 %
06.10.2016 17:26 11,7 C 12,2 C 11,1 C 80 % 0 lf 1021,8 hPa 0,0 l/m 0 min 0 min 69 W/m 16,7 km/h (3 Bft) 97,87 %
06.10.2016 17:28 11,7 C 12,2 C 11,1 C 80 % 0 lf 1021,8 hPa 0,0 l/m 0 min 0 min 65 W/m 16,7 km/h (3 Bft) 95,74 %
06.10.2016 17:30 11,7 C 12,2 C 11,1 C 80 % 0 lf 1021,7 hPa 0,0 l/m 0 min 0 min 58 W/m 20,9 km/h (4 Bft) 97,87 %
06.10.2016 17:32 11,7 C 12,2 C 11,1 C 80 % 0 lf 1021,7 hPa 0,0 l/m 0 min 0 min 57 W/m 23,0 km/h (4 Bft) 95,74 %
06.10.2016 17:34 11,7 C 12,2 C 11,1 C 80 % 0 lf 1021,7 hPa 0,0 l/m 0 min 0 min 59 W/m 25,1 km/h (4 Bft) 100,00 %
06.10.2016 17:36 11,6 C 12,2 C 11,1 C 80 % 0 lf 1021,7 hPa 0,0 l/m 0 min 0 min 58 W/m 23,0 km/h (4 Bft) 100,00 %
06.10.2016 17:38 11,6 C 12,2 C 11,1 C 80 % 0 lf 1021,6 hPa 0,0 l/m 0 min 0 min 60 W/m 29,3 km/h (5 Bft) 100,00 %
06.10.2016 17:40 11,6 C 12,2 C 11,1 C 80 % 0 lf 1021,6 hPa 0,0 l/m 0 min 0 min 62 W/m 16,7 km/h (3 Bft) 97,87 %
06.10.2016 17:42 11,6 C 12,2 C 11,1 C 80 % 0 lf 1021,6 hPa 0,0 l/m 0 min 0 min 62 W/m 29,3 km/h (5 Bft) 100,00 %
06.10.2016 17:44 11,6 C 12,2 C 11,1 C 81 % 0 lf 1021,6 hPa 0,0 l/m 0 min 0 min 62 W/m 27,2 km/h (4 Bft) 100,00 %
06.10.2016 17:46 11,6 C 12,2 C 10,6 C 80 % 0 lf 1021,6 hPa 0,0 l/m 0 min 0 min 58 W/m 33,5 km/h (5 Bft) 100,00 %
06.10.2016 17:48 11,6 C 11,7 C 10,6 C 80 % 0 lf 1021,6 hPa 0,0 l/m 0 min 0 min 55 W/m 27,2 km/h (4 Bft) 100,00 %
06.10.2016 17:50 11,5 C 11,7 C 10,6 C 81 % 0 lf 1021,6 hPa 0,0 l/m 0 min 0 min 46 W/m 16,7 km/h (3 Bft) 100,00 %
06.10.2016 17:52 11,5 C 11,7 C 10,6 C 81 % 0 lf 1021,6 hPa 0,0 l/m 0 min 0 min 39 W/m 23,0 km/h (4 Bft) 100,00 %
06.10.2016 17:54 11,5 C 11,7 C 10,6 C 81 % 0 lf 1021,6 hPa 0,0 l/m 0 min 0 min 36 W/m 16,7 km/h (3 Bft) 97,87 %
06.10.2016 17:56 11,5 C 11,7 C 10,6 C 81 % 0 lf 1021,6 hPa 0,0 l/m 0 min 0 min 33 W/m 10,5 km/h (2 Bft) 100,00 %
06.10.2016 17:58 11,5 C 11,7 C 10,6 C 81 % 0 lf 1021,7 hPa 0,0 l/m 0 min 0 min 30 W/m 8,4 km/h (2 Bft) 97,83 %
06.10.2016 18:00 11,5 C 11,7 C 10,6 C 81 % 0 lf 1021,7 hPa 0,0 l/m 0 min 0 min 26 W/m 8,4 km/h (2 Bft) 97,87 %
06.10.2016 18:02 11,5 C 11,7 C 10,6 C 81 % 0 lf 1021,7 hPa 0,0 l/m 0 min 0 min 24 W/m 14,6 km/h (3 Bft) 97,87 %
06.10.2016 18:06 11,5 C 11,7 C 10,6 C 81 % 0 lf 1021,7 hPa 0,0 l/m 0 min 0 min 20 W/m 14,6 km/h (3 Bft) 98,96 %
06.10.2016 18:08 11,5 C 11,7 C 10,6 C 81 % 0 lf 1021,8 hPa 0,0 l/m 0 min 0 min 17 W/m 16,7 km/h (3 Bft) 97,87 %
06.10.2016 18:10 11,5 C 11,7 C 10,6 C 81 % 0 lf 1021,8 hPa 0,0 l/m 0 min 0 min 16 W/m 16,7 km/h (3 Bft) 100,00 %
06.10.2016 18:12 11,5 C 11,7 C 10,6 C 81 % 0 lf 1021,8 hPa 0,0 l/m 0 min 0 min 16 W/m 10,5 km/h (2 Bft) 100,00 %
06.10.2016 18:14 11,4 C 11,7 C 10,6 C 81 % 0 lf 1021,8 hPa 0,0 l/m 0 min 0 min 18 W/m 14,6 km/h (3 Bft) 100,00 %
06.10.2016 18:16 11,4 C 11,7 C 10,6 C 81 % 0 lf 1021,8 hPa 0,0 l/m 0 min 0 min 21 W/m 10,5 km/h (2 Bft) 100,00 %
06.10.2016 18:18 11,4 C 11,7 C 10,6 C 81 % 0 lf 1021,9 hPa 0,0 l/m 0 min 0 min 22 W/m 10,5 km/h (2 Bft) 97,87 %
06.10.2016 18:20 11,4 C 11,7 C 10,6 C 81 % 0 lf 1021,8 hPa 0,0 l/m 0 min 0 min 19 W/m 10,5 km/h (2 Bft) 100,00 %
06.10.2016 18:22 11,4 C 11,7 C 10,6 C 82 % 0 lf 1021,9 hPa 0,0 l/m 0 min 0 min 17 W/m 12,6 km/h (3 Bft) 97,87 %
06.10.2016 18:24 11,4 C 11,7 C 10,6 C 82 % 0 lf 1021,9 hPa 0,0 l/m 0 min 0 min 14 W/m 18,8 km/h (3 Bft) 97,87 %
06.10.2016 18:26 11,4 C 11,7 C 10,6 C 82 % 0 lf 1021,8 hPa 0,0 l/m 0 min 0 min 14 W/m 16,7 km/h (3 Bft) 95,74 %
06.10.2016 18:28 11,4 C 11,7 C 10,0 C 82 % 0 lf 1021,8 hPa 0,0 l/m 0 min 0 min 11 W/m 18,8 km/h (3 Bft) 95,74 %
06.10.2016 18:30 11,4 C 11,7 C 10,0 C 82 % 0 lf 1021,9 hPa 0,0 l/m 0 min 0 min 8 W/m 18,8 km/h (3 Bft) 95,74 %
06.10.2016 18:32 11,4 C 11,7 C 10,0 C 82 % 0 lf 1021,9 hPa 0,0 l/m 0 min 0 min 7 W/m 14,6 km/h (3 Bft) 95,65 %
06.10.2016 18:34 11,4 C 11,7 C 10,0 C 82 % 0 lf 1021,9 hPa 0,0 l/m 0 min 0 min 7 W/m 10,5 km/h (2 Bft) 91,49 %
06.10.2016 18:36 11,3 C 11,7 C 10,0 C 82 % 0 lf 1021,9 hPa 0,0 l/m 0 min 0 min 7 W/m 16,7 km/h (3 Bft) 95,74 %
06.10.2016 18:38 11,3 C 11,7 C 10,0 C 82 % 0 lf 1022,0 hPa 0,0 l/m 0 min 0 min 7 W/m 18,8 km/h (3 Bft) 93,62 %
06.10.2016 18:40 11,3 C 11,7 C 10,0 C 82 % 0 lf 1021,9 hPa 0,0 l/m 0 min 0 min 7 W/m 16,7 km/h (3 Bft) 93,62 %
06.10.2016 18:42 11,3 C 11,1 C 10,0 C 82 % 0 lf 1021,9 hPa 0,0 l/m 0 min 0 min 7 W/m 16,7 km/h (3 Bft) 95,74 %
06.10.2016 18:44 11,3 C 11,1 C 10,0 C 82 % 0 lf 1022,0 hPa 0,0 l/m 0 min 0 min 6 W/m 18,8 km/h (3 Bft) 93,48 %
06.10.2016 18:46 11,3 C 11,1 C 10,0 C 82 % 0 lf 1022,0 hPa 0,0 l/m 0 min 0 min 5 W/m 20,9 km/h (4 Bft) 95,74 %
06.10.2016 18:48 11,3 C 11,1 C 10,0 C 82 % 0 lf 1022,0 hPa 0,0 l/m 0 min 0 min 5 W/m 18,8 km/h (3 Bft) 95,74 %
06.10.2016 18:50 11,3 C 11,1 C 10,0 C 82 % 0 lf 1022,0 hPa 0,0 l/m 0 min 0 min 5 W/m 16,7 km/h (3 Bft) 91,49 %
06.10.2016 18:52 11,3 C 11,1 C 10,0 C 82 % 0 lf 1022,0 hPa 0,0 l/m 0 min 0 min 5 W/m 14,6 km/h (3 Bft) 91,49 %
06.10.2016 18:54 11,3 C 11,1 C 10,0 C 82 % 0 lf 1022,0 hPa 0,0 l/m 0 min 0 min 5 W/m 16,7 km/h (3 Bft) 91,49 %
06.10.2016 18:56 11,2 C 11,1 C 10,0 C 82 % 0 lf 1022,0 hPa 0,0 l/m 0 min 0 min 5 W/m 18,8 km/h (3 Bft) 89,13 %
06.10.2016 18:58 11,2 C 11,1 C 10,0 C 82 % 0 lf 1022,0 hPa 0,0 l/m 0 min 0 min 3 W/m 25,1 km/h (4 Bft) 93,62 %
06.10.2016 19:00 11,2 C 11,1 C 10,0 C 82 % 0 lf 1022,0 hPa 0,0 l/m 0 min 0 min 0 W/m 20,9 km/h (4 Bft) 93,62 %
06.10.2016 19:02 11,2 C 11,1 C 10,0 C 82 % 0 lf 1022,0 hPa 0,0 l/m 0 min 0 min 0 W/m 18,8 km/h (3 Bft) 91,49 %
06.10.2016 19:04 11,2 C 11,1 C 10,0 C 83 % 0 lf 1022,0 hPa 0,0 l/m 0 min 0 min 0 W/m 16,7 km/h (3 Bft) 93,62 %
06.10.2016 19:06 11,2 C 11,1 C 10,0 C 83 % 0 lf 1022,0 hPa 0,0 l/m 0 min 0 min 0 W/m 18,8 km/h (3 Bft) 93,62 %
06.10.2016 19:08 11,2 C 11,1 C 10,0 C 83 % 0 lf 1022,0 hPa 0,0 l/m 0 min 0 min 0 W/m 31,4 km/h (5 Bft) 95,65 %
06.10.2016 19:10 11,2 C 11,1 C 10,0 C 83 % 0 lf 1022,0 hPa 0,0 l/m 0 min 0 min 0 W/m 20,9 km/h (4 Bft) 95,74 %
06.10.2016 19:12 11,2 C 11,1 C 10,0 C 83 % 0 lf 1022,0 hPa 0,0 l/m 0 min 0 min 0 W/m 14,6 km/h (3 Bft) 93,62 %
06.10.2016 19:14 11,2 C 11,1 C 10,0 C 83 % 0 lf 1022,0 hPa 0,0 l/m 0 min 0 min 0 W/m 18,8 km/h (3 Bft) 95,74 %
06.10.2016 19:16 11,2 C 11,1 C 10,0 C 83 % 0 lf 1022,0 hPa 0,0 l/m 0 min 0 min 0 W/m 14,6 km/h (3 Bft) 97,87 %
06.10.2016 19:18 11,2 C 11,1 C 10,0 C 83 % 0 lf 1022,0 hPa 0,0 l/m 0 min 0 min 0 W/m 12,6 km/h (3 Bft) 95,65 %
06.10.2016 19:20 11,2 C 11,1 C 10,0 C 83 % 0 lf 1022,0 hPa 0,0 l/m 0 min 0 min 0 W/m 14,6 km/h (3 Bft) 93,62 %
06.10.2016 19:22 11,2 C 11,1 C 10,0 C 83 % 0 lf 1022,0 hPa 0,0 l/m 0 min 0 min 0 W/m 8,4 km/h (2 Bft) 91,49 %
06.10.2016 19:24 11,2 C 11,1 C 10,0 C 83 % 0 lf 1022,0 hPa 0,0 l/m 0 min 0 min 0 W/m 16,7 km/h (3 Bft) 95,74 %
06.10.2016 19:26 11,2 C 11,1 C 10,0 C 83 % 1 lf 1022,0 hPa 0,0 l/m 0 min 0 min 0 W/m 16,7 km/h (3 Bft) 93,62 %
06.10.2016 19:28 11,2 C 11,1 C 10,0 C 83 % 2 lf 1022,0 hPa 0,0 l/m 0 min 0 min 0 W/m 18,8 km/h (3 Bft) 91,49 %
06.10.2016 19:30 11,2 C 11,1 C 10,0 C 83 % 1 lf 1022,0 hPa 0,0 l/m 0 min 0 min 0 W/m 29,3 km/h (5 Bft) 93,48 %
06.10.2016 19:32 11,2 C 11,1 C 10,0 C 84 % 1 lf 1022,0 hPa 0,0 l/m 0 min 0 min 0 W/m 27,2 km/h (4 Bft) 93,62 %
06.10.2016 19:34 11,2 C 11,1 C 10,0 C 84 % 1 lf 1022,0 hPa 0,0 l/m 0 min 0 min 0 W/m 16,7 km/h (3 Bft) 95,74 %
06.10.2016 19:36 11,2 C 11,1 C 10,0 C 84 % 0 lf 1022,0 hPa 0,0 l/m 0 min 0 min 0 W/m 14,6 km/h (3 Bft) 95,74 %
06.10.2016 19:38 11,2 C 11,1 C 9,4 C 84 % 0 lf 1022,0 hPa 0,0 l/m 0 min 0 min 0 W/m 8,4 km/h (2 Bft) 93,62 %
06.10.2016 19:40 11,2 C 11,1 C 10,0 C 84 % 0 lf 1022,0 hPa 0,0 l/m 0 min 0 min 0 W/m 8,4 km/h (2 Bft) 97,87 %
06.10.2016 19:42 11,2 C 11,1 C 10,0 C 84 % 0 lf 1022,0 hPa 0,0 l/m 0 min 0 min 0 W/m 16,7 km/h (3 Bft) 95,65 %
06.10.2016 19:44 11,2 C 11,1 C 10,0 C 84 % 0 lf 1022,0 hPa 0,0 l/m 0 min 0 min 0 W/m 12,6 km/h (3 Bft) 97,87 %
06.10.2016 19:46 11,2 C 11,1 C 10,0 C 84 % 0 lf 1022,0 hPa 0,0 l/m 0 min 0 min 0 W/m 16,7 km/h (3 Bft) 95,74 %
06.10.2016 19:48 11,1 C 11,1 C 9,4 C 84 % 1 lf 1022,0 hPa 0,0 l/m 0 min 0 min 0 W/m 8,4 km/h (2 Bft) 93,62 %
06.10.2016 19:50 11,1 C 11,1 C 9,4 C 84 % 3 lf 1022,1 hPa 0,0 l/m 0 min 0 min 0 W/m 14,6 km/h (3 Bft) 97,87 %
06.10.2016 19:52 11,1 C 11,1 C 9,4 C 84 % 1 lf 1022,1 hPa 0,0 l/m 0 min 0 min 0 W/m 14,6 km/h (3 Bft) 93,62 %
06.10.2016 19:54 11,1 C 11,1 C 9,4 C 84 % 0 lf 1022,1 hPa 0,0 l/m 0 min 0 min 0 W/m 14,6 km/h (3 Bft) 95,74 %
06.10.2016 19:56 11,1 C 11,1 C 9,4 C 85 % 0 lf 1022,1 hPa 0,0 l/m 0 min 0 min 0 W/m 12,6 km/h (3 Bft) 95,65 %
06.10.2016 19:58 11,1 C 11,1 C 9,4 C 85 % 0 lf 1022,1 hPa 0,0 l/m 0 min 0 min 0 W/m 12,6 km/h (3 Bft) 95,74 %
06.10.2016 20:00 11,1 C 11,1 C 9,4 C 85 % 0 lf 1022,1 hPa 0,0 l/m 0 min 0 min 0 W/m 8,4 km/h (2 Bft) 95,74 %
06.10.2016 20:02 11,1 C 11,1 C 9,4 C 85 % 1 lf 1022,1 hPa 0,0 l/m 0 min 0 min 0 W/m 10,5 km/h (2 Bft) 95,74 %
06.10.2016 20:04 11,1 C 11,1 C 9,4 C 85 % 0 lf 1022,1 hPa 0,0 l/m 0 min 0 min 0 W/m 10,5 km/h (2 Bft) 97,87 %
06.10.2016 20:06 11,1 C 11,1 C 9,4 C 85 % 0 lf 1022,1 hPa 0,0 l/m 0 min 0 min 0 W/m 10,5 km/h (2 Bft) 97,83 %
06.10.2016 20:08 11,1 C 11,1 C 9,4 C 85 % 0 lf 1022,1 hPa 0,0 l/m 0 min 0 min 0 W/m 14,6 km/h (3 Bft) 95,74 %
06.10.2016 20:10 11,0 C 11,1 C 9,4 C 85 % 1 lf 1022,1 hPa 0,0 l/m 0 min 0 min 0 W/m 14,6 km/h (3 Bft) 93,62 %
06.10.2016 20:12 11,1 C 11,1 C 9,4 C 86 % 0 lf 1022,1 hPa 0,0 l/m 0 min 0 min 0 W/m 12,6 km/h (3 Bft) 97,87 %
06.10.2016 20:14 11,0 C 11,1 C 9,4 C 86 % 4 lf 1022,1 hPa 0,0 l/m 0 min 0 min 0 W/m 10,5 km/h (2 Bft) 93,62 %
06.10.2016 20:16 11,0 C 11,1 C 9,4 C 86 % 4 lf 1022,1 hPa 0,0 l/m 0 min 0 min 0 W/m 8,4 km/h (2 Bft) 93,62 %
06.10.2016 20:18 11,0 C 10,6 C 9,4 C 86 % 14 lf 1022,1 hPa 0,0 l/m 0 min 0 min 0 W/m 8,4 km/h (2 Bft) 91,30 %
06.10.2016 20:20 11,0 C 10,6 C 9,4 C 86 % 14 lf 1022,1 hPa 0,0 l/m 0 min 0 min 0 W/m 6,3 km/h (2 Bft) 93,62 %
06.10.2016 20:22 11,0 C 10,6 C 9,4 C 86 % 13 lf 1022,0 hPa 0,0 l/m 0 min 0 min 0 W/m 8,4 km/h (2 Bft) 97,87 %
06.10.2016 20:24 11,0 C 10,6 C 8,9 C 86 % 9 lf 1022,1 hPa 0,0 l/m 0 min 0 min 0 W/m 6,3 km/h (2 Bft) 97,87 %
06.10.2016 20:26 11,0 C 10,6 C 8,9 C 86 % 8 lf 1022,1 hPa 0,0 l/m 0 min 0 min 0 W/m 8,4 km/h (2 Bft) 95,74 %
06.10.2016 20:28 11,0 C 10,6 C 8,9 C 86 % 4 lf 1022,1 hPa 0,0 l/m 0 min 0 min 0 W/m 10,5 km/h (2 Bft) 97,87 %
06.10.2016 20:30 10,9 C 10,6 C 8,9 C 86 % 4 lf 1022,1 hPa 0,0 l/m 0 min 0 min 0 W/m 6,3 km/h (2 Bft) 95,65 %
06.10.2016 20:32 10,9 C 10,6 C 8,9 C 86 % 3 lf 1022,0 hPa 0,0 l/m 0 min 0 min 0 W/m 8,4 km/h (2 Bft) 93,62 %
06.10.2016 20:34 10,9 C 10,6 C 8,9 C 87 % 1 lf 1022,0 hPa 0,0 l/m 0 min 0 min 0 W/m 6,3 km/h (2 Bft) 93,62 %
06.10.2016 20:36 10,9 C 10,6 C 9,4 C 87 % 2 lf 1022,0 hPa 0,0 l/m 0 min 0 min 0 W/m 6,3 km/h (2 Bft) 95,74 %
06.10.2016 20:38 10,9 C 10,6 C 9,4 C 87 % 1 lf 1022,0 hPa 0,0 l/m 0 min 0 min 0 W/m 8,4 km/h (2 Bft) 97,87 %
06.10.2016 20:40 10,9 C 10,6 C 9,4 C 87 % 2 lf 1022,0 hPa 0,0 l/m 0 min 0 min 0 W/m 8,4 km/h (2 Bft) 97,83 %
06.10.2016 20:42 10,9 C 10,6 C 9,4 C 87 % 4 lf 1022,0 hPa 0,0 l/m 0 min 0 min 0 W/m 10,5 km/h (2 Bft) 93,62 %
06.10.2016 20:44 10,9 C 10,6 C 9,4 C 87 % 4 lf 1022,0 hPa 0,0 l/m 0 min 0 min 0 W/m 8,4 km/h (2 Bft) 97,87 %
06.10.2016 20:46 10,9 C 10,6 C 9,4 C 87 % 4 lf 1022,0 hPa 0,0 l/m 0 min 0 min 0 W/m 8,4 km/h (2 Bft) 97,87 %
06.10.2016 20:48 10,9 C 10,6 C 8,9 C 87 % 4 lf 1022,1 hPa 0,0 l/m 0 min 0 min 0 W/m 12,6 km/h (3 Bft) 95,74 %
06.10.2016 20:50 10,9 C 10,6 C 8,9 C 87 % 6 lf 1022,0 hPa 0,0 l/m 0 min 0 min 0 W/m 6,3 km/h (2 Bft) 95,74 %
06.10.2016 20:52 10,8 C 10,6 C 8,9 C 87 % 9 lf 1022,1 hPa 0,0 l/m 0 min 0 min 0 W/m 8,4 km/h (2 Bft) 95,65 %
06.10.2016 20:54 10,8 C 10,6 C 8,9 C 87 % 9 lf 1022,1 hPa 0,0 l/m 0 min 0 min 0 W/m 6,3 km/h (2 Bft) 93,62 %
06.10.2016 20:56 10,8 C 10,6 C 8,9 C 88 % 6 lf 1022,1 hPa 0,0 l/m 0 min 0 min 0 W/m 6,3 km/h (2 Bft) 97,87 %
06.10.2016 20:58 10,8 C 10,6 C 8,9 C 88 % 5 lf 1022,0 hPa 0,0 l/m 0 min 0 min 0 W/m 6,3 km/h (2 Bft) 95,74 %
06.10.2016 21:00 10,8 C 10,6 C 8,9 C 88 % 4 lf 1022,0 hPa 0,0 l/m 0 min 0 min 0 W/m 10,5 km/h (2 Bft) 95,74 %
06.10.2016 21:02 10,8 C 10,6 C 8,9 C 88 % 2 lf 1022,1 hPa 0,0 l/m 0 min 0 min 0 W/m 16,7 km/h (3 Bft) 93,62 %
06.10.2016 21:04 10,8 C 10,6 C 8,9 C 88 % 1 lf 1022,1 hPa 0,0 l/m 0 min 0 min 0 W/m 8,4 km/h (2 Bft) 95,65 %
06.10.2016 21:06 10,8 C 10,6 C 9,4 C 88 % 1 lf 1022,1 hPa 0,0 l/m 0 min 0 min 0 W/m 14,6 km/h (3 Bft) 100,00 %
06.10.2016 21:08 10,8 C 10,6 C 9,4 C 88 % 1 lf 1022,0 hPa 0,0 l/m 0 min 0 min 0 W/m 10,5 km/h (2 Bft) 100,00 %
06.10.2016 21:10 10,8 C 10,6 C 9,4 C 88 % 1 lf 1022,1 hPa 0,0 l/m 0 min 0 min 0 W/m 12,6 km/h (3 Bft) 95,74 %
06.10.2016 21:12 10,8 C 10,6 C 9,4 C 88 % 2 lf 1022,1 hPa 0,0 l/m 0 min 0 min 0 W/m 8,4 km/h (2 Bft) 95,74 %
06.10.2016 21:14 10,8 C 10,6 C 9,4 C 89 % 1 lf 1022,0 hPa 0,0 l/m 0 min 0 min 0 W/m 10,5 km/h (2 Bft) 97,87 %
06.10.2016 21:16 10,7 C 10,6 C 9,4 C 89 % 1 lf 1022,1 hPa 0,0 l/m 0 min 0 min 0 W/m 6,3 km/h (2 Bft) 97,83 %
06.10.2016 21:18 10,8 C 10,6 C 9,4 C 88 % 1 lf 1022,1 hPa 0,0 l/m 0 min 0 min 0 W/m 12,6 km/h (3 Bft) 97,87 %
06.10.2016 21:20 10,7 C 10,6 C 9,4 C 88 % 3 lf 1022,1 hPa 0,0 l/m 0 min 0 min 0 W/m 10,5 km/h (2 Bft) 95,74 %
06.10.2016 21:22 10,7 C 10,6 C 9,4 C 88 % 2 lf 1022,1 hPa 0,0 l/m 0 min 0 min 0 W/m 10,5 km/h (2 Bft) 97,87 %
06.10.2016 21:24 10,7 C 10,6 C 9,4 C 89 % 1 lf 1022,1 hPa 0,0 l/m 0 min 0 min 0 W/m 8,4 km/h (2 Bft) 95,74 %
06.10.2016 21:26 10,7 C 10,6 C 9,4 C 89 % 1 lf 1022,1 hPa 0,0 l/m 0 min 0 min 0 W/m 14,6 km/h (3 Bft) 91,49 %
06.10.2016 21:28 10,7 C 10,6 C 9,4 C 89 % 1 lf 1022,0 hPa 0,0 l/m 0 min 0 min 0 W/m 12,6 km/h (3 Bft) 95,65 %
06.10.2016 21:30 10,7 C 10,6 C 9,4 C 89 % 1 lf 1022,0 hPa 0,0 l/m 0 min 0 min 0 W/m 14,6 km/h (3 Bft) 89,36 %
06.10.2016 21:32 10,7 C 10,6 C 9,4 C 89 % 1 lf 1022,0 hPa 0,0 l/m 0 min 0 min 0 W/m 12,6 km/h (3 Bft) 95,74 %
06.10.2016 21:34 10,7 C 10,6 C 9,4 C 89 % 0 lf 1022,0 hPa 0,0 l/m 0 min 0 min 0 W/m 8,4 km/h (2 Bft) 91,49 %
06.10.2016 21:36 10,7 C 10,6 C 9,4 C 89 % 0 lf 1022,0 hPa 0,0 l/m 0 min 0 min 0 W/m 14,6 km/h (3 Bft) 97,87 %
06.10.2016 21:38 10,7 C 10,6 C 9,4 C 89 % 0 lf 1022,0 hPa 0,0 l/m 0 min 0 min 0 W/m 14,6 km/h (3 Bft) 93,62 %
06.10.2016 21:40 10,7 C 10,6 C 9,4 C 89 % 1 lf 1022,0 hPa 0,0 l/m 0 min 0 min 0 W/m 14,6 km/h (3 Bft) 95,65 %
06.10.2016 21:42 10,7 C 11,1 C 9,4 C 89 % 0 lf 1022,0 hPa 0,0 l/m 0 min 0 min 0 W/m 8,4 km/h (2 Bft) 95,74 %
06.10.2016 21:44 10,7 C 11,1 C 9,4 C 89 % 0 lf 1021,9 hPa 0,0 l/m 0 min 0 min 0 W/m 8,4 km/h (2 Bft) 89,36 %
06.10.2016 21:46 10,7 C 11,1 C 9,4 C 89 % 0 lf 1021,9 hPa 0,0 l/m 0 min 0 min 0 W/m 10,5 km/h (2 Bft) 95,74 %
06.10.2016 21:48 10,7 C 11,1 C 9,4 C 89 % 0 lf 1021,9 hPa 0,0 l/m 0 min 0 min 0 W/m 8,4 km/h (2 Bft) 93,62 %
06.10.2016 21:50 10,7 C 11,1 C 9,4 C 89 % 1 lf 1022,0 hPa 0,0 l/m 0 min 0 min 0 W/m 10,5 km/h (2 Bft) 95,65 %
06.10.2016 21:52 10,7 C 11,1 C 9,4 C 89 % 0 lf 1021,9 hPa 0,0 l/m 0 min 0 min 0 W/m 6,3 km/h (2 Bft) 89,36 %
06.10.2016 21:54 10,7 C 11,1 C 9,4 C 89 % 0 lf 1021,9 hPa 0,0 l/m 0 min 0 min 0 W/m 8,4 km/h (2 Bft) 95,74 %
06.10.2016 21:56 10,7 C 11,1 C 9,4 C 89 % 0 lf 1022,0 hPa 0,0 l/m 0 min 0 min 0 W/m 10,5 km/h (2 Bft) 95,74 %
06.10.2016 21:58 10,8 C 11,1 C 9,4 C 89 % 0 lf 1021,9 hPa 0,0 l/m 0 min 0 min 0 W/m 8,4 km/h (2 Bft) 93,62 %
06.10.2016 22:00 10,8 C 11,1 C 9,4 C 89 % 1 lf 1021,9 hPa 0,0 l/m 0 min 0 min 0 W/m 16,7 km/h (3 Bft) 93,62 %
06.10.2016 22:02 10,8 C 11,1 C 9,4 C 89 % 0 lf 1021,9 hPa 0,0 l/m 0 min 0 min 0 W/m 14,6 km/h (3 Bft) 93,48 %
06.10.2016 22:04 10,8 C 11,1 C 9,4 C 89 % 0 lf 1021,9 hPa 0,0 l/m 0 min 0 min 0 W/m 10,5 km/h (2 Bft) 95,74 %
06.10.2016 22:06 10,8 C 11,1 C 9,4 C 89 % 0 lf 1021,9 hPa 0,0 l/m 0 min 0 min 0 W/m 12,6 km/h (3 Bft) 91,49 %
06.10.2016 22:08 10,8 C 11,1 C 9,4 C 89 % 0 lf 1021,9 hPa 0,0 l/m 0 min 0 min 0 W/m 14,6 km/h (3 Bft) 95,74 %
06.10.2016 22:10 10,8 C 11,1 C 9,4 C 89 % 0 lf 1021,9 hPa 0,0 l/m 0 min 0 min 0 W/m 14,6 km/h (3 Bft) 97,87 %
06.10.2016 22:12 10,8 C 11,1 C 10,0 C 89 % 0 lf 1021,9 hPa 0,0 l/m 0 min 0 min 0 W/m 23,0 km/h (4 Bft) 95,74 %
06.10.2016 22:14 10,8 C 11,1 C 10,0 C 89 % 0 lf 1021,9 hPa 0,0 l/m 0 min 0 min 0 W/m 14,6 km/h (3 Bft) 97,83 %
06.10.2016 22:16 10,8 C 11,1 C 10,0 C 89 % 0 lf 1021,9 hPa 0,0 l/m 0 min 0 min 0 W/m 12,6 km/h (3 Bft) 97,87 %
06.10.2016 22:18 10,8 C 11,1 C 10,0 C 89 % 0 lf 1021,9 hPa 0,0 l/m 0 min 0 min 0 W/m 16,7 km/h (3 Bft) 95,74 %
06.10.2016 22:20 10,8 C 11,1 C 10,0 C 89 % 0 lf 1021,9 hPa 0,0 l/m 0 min 0 min 0 W/m 12,6 km/h (3 Bft) 97,87 %
06.10.2016 22:22 10,8 C 11,1 C 10,0 C 89 % 0 lf 1021,9 hPa 0,0 l/m 0 min 0 min 0 W/m 10,5 km/h (2 Bft) 93,62 %
06.10.2016 22:24 10,8 C 11,1 C 10,0 C 89 % 0 lf 1021,8 hPa 0,0 l/m 0 min 0 min 0 W/m 10,5 km/h (2 Bft) 97,87 %
06.10.2016 22:26 10,8 C 11,1 C 10,0 C 89 % 0 lf 1021,9 hPa 0,0 l/m 0 min 0 min 0 W/m 16,7 km/h (3 Bft) 97,83 %
06.10.2016 22:28 10,8 C 11,1 C 10,0 C 89 % 0 lf 1021,9 hPa 0,0 l/m 0 min 0 min 0 W/m 20,9 km/h (4 Bft) 91,49 %
06.10.2016 22:30 10,8 C 11,1 C 10,0 C 89 % 0 lf 1021,9 hPa 0,0 l/m 0 min 0 min 0 W/m 16,7 km/h (3 Bft) 97,87 %
06.10.2016 22:32 10,9 C 11,1 C 10,0 C 89 % 0 lf 1021,9 hPa 0,0 l/m 0 min 0 min 0 W/m 18,8 km/h (3 Bft) 93,62 %
06.10.2016 22:34 10,9 C 11,1 C 10,0 C 89 % 0 lf 1021,8 hPa 0,0 l/m 0 min 0 min 0 W/m 16,7 km/h (3 Bft) 95,74 %
06.10.2016 22:36 10,9 C 11,1 C 10,0 C 89 % 0 lf 1021,8 hPa 0,0 l/m 0 min 0 min 0 W/m 14,6 km/h (3 Bft) 95,74 %
06.10.2016 22:38 10,9 C 11,1 C 10,0 C 89 % 0 lf 1021,8 hPa 0,0 l/m 0 min 0 min 0 W/m 16,7 km/h (3 Bft) 97,83 %
06.10.2016 22:40 10,9 C 11,1 C 10,0 C 89 % 0 lf 1021,7 hPa 0,0 l/m 0 min 0 min 0 W/m 14,6 km/h (3 Bft) 95,74 %
06.10.2016 22:42 10,9 C 11,1 C 10,0 C 89 % 0 lf 1021,8 hPa 0,0 l/m 0 min 0 min 0 W/m 10,5 km/h (2 Bft) 95,74 %
06.10.2016 22:44 10,9 C 11,1 C 10,0 C 89 % 0 lf 1021,7 hPa 0,0 l/m 0 min 0 min 0 W/m 10,5 km/h (2 Bft) 97,87 %
06.10.2016 22:46 10,9 C 11,1 C 10,0 C 89 % 0 lf 1021,7 hPa 0,0 l/m 0 min 0 min 0 W/m 16,7 km/h (3 Bft) 95,74 %
06.10.2016 22:48 10,9 C 11,1 C 10,0 C 89 % 0 lf 1021,6 hPa 0,0 l/m 0 min 0 min 0 W/m 16,7 km/h (3 Bft) 97,87 %
06.10.2016 22:50 10,9 C 11,1 C 10,0 C 89 % 0 lf 1021,6 hPa 0,0 l/m 0 min 0 min 0 W/m 14,6 km/h (3 Bft) 93,48 %
06.10.2016 22:52 10,9 C 11,1 C 9,4 C 89 % 0 lf 1021,6 hPa 0,0 l/m 0 min 0 min 0 W/m 16,7 km/h (3 Bft) 95,74 %
06.10.2016 22:54 10,9 C 11,1 C 9,4 C 89 % 0 lf 1021,5 hPa 0,0 l/m 0 min 0 min 0 W/m 23,0 km/h (4 Bft) 97,87 %
06.10.2016 22:56 10,9 C 11,1 C 9,4 C 89 % 0 lf 1021,6 hPa 0,0 l/m 0 min 0 min 0 W/m 20,9 km/h (4 Bft) 97,87 %
06.10.2016 22:58 10,8 C 11,1 C 9,4 C 89 % 0 lf 1021,5 hPa 0,0 l/m 0 min 0 min 0 W/m 20,9 km/h (4 Bft) 100,00 %
06.10.2016 23:00 10,8 C 11,1 C 9,4 C 89 % 0 lf 1021,5 hPa 0,0 l/m 0 min 0 min 0 W/m 18,8 km/h (3 Bft) 100,00 %
06.10.2016 23:02 10,8 C 11,1 C 9,4 C 89 % 0 lf 1021,5 hPa 0,0 l/m 0 min 0 min 0 W/m 18,8 km/h (3 Bft) 100,00 %
06.10.2016 23:04 10,8 C 11,1 C 9,4 C 89 % 0 lf 1021,5 hPa 0,0 l/m 0 min 0 min 0 W/m 18,8 km/h (3 Bft) 95,74 %
06.10.2016 23:06 10,8 C 11,1 C 9,4 C 89 % 0 lf 1021,5 hPa 0,0 l/m 0 min 0 min 0 W/m 18,8 km/h (3 Bft) 100,00 %
06.10.2016 23:08 10,8 C 11,1 C 10,0 C 89 % 0 lf 1021,4 hPa 0,0 l/m 0 min 0 min 0 W/m 18,8 km/h (3 Bft) 97,87 %
06.10.2016 23:10 10,8 C 11,1 C 10,0 C 89 % 0 lf 1021,4 hPa 0,0 l/m 0 min 0 min 0 W/m 16,7 km/h (3 Bft) 91,49 %
06.10.2016 23:12 10,8 C 11,1 C 10,0 C 89 % 0 lf 1021,4 hPa 0,0 l/m 0 min 0 min 0 W/m 18,8 km/h (3 Bft) 100,00 %
06.10.2016 23:14 10,8 C 11,1 C 10,0 C 89 % 0 lf 1021,3 hPa 0,0 l/m 0 min 0 min 0 W/m 20,9 km/h (4 Bft) 100,00 %
06.10.2016 23:16 10,8 C 11,1 C 10,0 C 89 % 0 lf 1021,4 hPa 0,0 l/m 0 min 0 min 0 W/m 18,8 km/h (3 Bft) 97,87 %
06.10.2016 23:18 10,8 C 11,1 C 10,0 C 89 % 0 lf 1021,4 hPa 0,0 l/m 0 min 0 min 0 W/m 23,0 km/h (4 Bft) 100,00 %
06.10.2016 23:20 10,8 C 11,1 C 10,0 C 89 % 0 lf 1021,4 hPa 0,0 l/m 0 min 0 min 0 W/m 20,9 km/h (4 Bft) 100,00 %
06.10.2016 23:22 10,8 C 11,1 C 10,0 C 89 % 0 lf 1021,3 hPa 0,0 l/m 0 min 0 min 0 W/m 23,0 km/h (4 Bft) 97,87 %
06.10.2016 23:24 10,8 C 11,1 C 10,0 C 89 % 0 lf 1021,3 hPa 0,0 l/m 0 min 0 min 0 W/m 18,8 km/h (3 Bft) 97,83 %
06.10.2016 23:26 10,8 C 11,1 C 10,0 C 89 % 0 lf 1021,3 hPa 0,0 l/m 0 min 0 min 0 W/m 16,7 km/h (3 Bft) 97,87 %
06.10.2016 23:28 10,8 C 11,1 C 10,0 C 89 % 0 lf 1021,3 hPa 0,0 l/m 0 min 0 min 0 W/m 23,0 km/h (4 Bft) 97,87 %
06.10.2016 23:30 10,8 C 11,1 C 10,0 C 89 % 0 lf 1021,3 hPa 0,0 l/m 0 min 0 min 0 W/m 18,8 km/h (3 Bft) 93,62 %
06.10.2016 23:32 10,9 C 11,1 C 10,0 C 89 % 0 lf 1021,3 hPa 0,0 l/m 0 min 0 min 0 W/m 16,7 km/h (3 Bft) 97,87 %
06.10.2016 23:34 10,8 C 11,1 C 10,0 C 89 % 0 lf 1021,2 hPa 0,0 l/m 0 min 0 min 0 W/m 14,6 km/h (3 Bft) 97,87 %
06.10.2016 23:36 10,8 C 11,1 C 10,0 C 89 % 0 lf 1021,2 hPa 0,0 l/m 0 min 0 min 0 W/m 16,7 km/h (3 Bft) 97,83 %
06.10.2016 23:38 10,8 C 11,1 C 10,0 C 89 % 0 lf 1021,1 hPa 0,0 l/m 0 min 0 min 0 W/m 16,7 km/h (3 Bft) 97,87 %
06.10.2016 23:40 10,8 C 11,1 C 10,0 C 89 % 0 lf 1021,2 hPa 0,0 l/m 0 min 0 min 0 W/m 18,8 km/h (3 Bft) 97,87 %
06.10.2016 23:42 10,8 C 11,1 C 10,0 C 89 % 0 lf 1021,2 hPa 0,0 l/m 0 min 0 min 0 W/m 16,7 km/h (3 Bft) 93,62 %
06.10.2016 23:44 10,9 C 11,1 C 10,0 C 89 % 0 lf 1021,2 hPa 0,0 l/m 0 min 0 min 0 W/m 18,8 km/h (3 Bft) 95,74 %
06.10.2016 23:46 10,8 C 11,1 C 10,0 C 89 % 0 lf 1021,2 hPa 0,0 l/m 0 min 0 min 0 W/m 20,9 km/h (4 Bft) 97,87 %
06.10.2016 23:48 10,8 C 11,1 C 10,0 C 89 % 0 lf 1021,2 hPa 0,0 l/m 0 min 0 min 0 W/m 23,0 km/h (4 Bft) 95,65 %
06.10.2016 23:50 10,9 C 11,1 C 10,0 C 89 % 0 lf 1021,3 hPa 0,0 l/m 0 min 0 min 0 W/m 14,6 km/h (3 Bft) 95,74 %
06.10.2016 23:52 10,8 C 11,1 C 10,0 C 89 % 0 lf 1021,2 hPa 0,0 l/m 0 min 0 min 0 W/m 18,8 km/h (3 Bft) 97,87 %
06.10.2016 23:54 10,9 C 11,1 C 10,0 C 89 % 0 lf 1021,1 hPa 0,0 l/m 0 min 0 min 0 W/m 18,8 km/h (3 Bft) 97,87 %
06.10.2016 23:56 10,9 C 11,1 C 10,0 C 89 % 0 lf 1021,2 hPa 0,0 l/m 0 min 0 min 0 W/m 16,7 km/h (3 Bft) 95,74 %
06.10.2016 23:58 10,9 C 11,1 C 10,0 C 89 % 0 lf 1021,2 hPa 0,0 l/m 0 min 0 min 0 W/m 20,9 km/h (4 Bft) 95,74 %
_ Min-Zeit 06:06 05:40 05:44 12:06 00:00 23:38 - - - - 04:38 00:02
Minimum _ 3,6 C 2,2 C 1,1 C 75 % 0 lf 1021,1 hPa - - - - 2,1 km/h (1 Bft) 9,09 %
_ Max-Zeit 16:42 11:50 14:24 07:14 20:18 00:00 00:00 09:46 00:00 11:56 13:30 00:32
Maximum _ 11,8 C 13,9 C 12,8 C 93 % 14 lf 1028,3 hPa 0,0 l/m 2 min 0 min 406 W/m 37,7 km/h
O-NO (5 Bft)
100,00 %
Durchschnitt _ 8,6 C 8,9 C 7,7 C 85 % 0 lf 1024,1 hPa #0,0 l/m #46 min. #0 min. 124 W/m 14,5 km/h (3 Bft) 95,83 %
© 2016 W. Hausmann